GFSFLT1_sfc_temp_000.txt.gz
Temp
77 78 76 75 75 74 74 74 74 74 74 74 74 75 74 72 64 63 64 66 72 77 76 75 75 75 75 76 76 75 75 75 75
77 77 76 75 75 75 75 75 75 75 74 74 74 74 73 66 62 61 62 63 73 76 77 77 76 76 75 75 76 76 76 76 76
76 76 75 75 75 75 75 74 74 74 74 74 74 73 71 67 63 62 62 66 73 75 76 77 76 76 76 76 76 76 76 76 76
75 75 75 75 74 74 74 74 74 74 74 73 73 72 70 65 63 65 63 68 73 75 76 76 77 77 76 76 75 75 76 76 76
74 73 73 74 73 73 73 73 73 73 73 73 72 70 69 65 64 64 64 70 74 75 76 76 77 77 77 76 75 75 75 75 76
67 69 70 72 73 73 73 73 73 72 70 70 70 69 64 63 63 64 68 72 74 75 76 77 77 77 76 76 75 75 75 75 75
68 67 69 71 72 72 73 73 72 70 65 64 66 64 63 62 63 63 69 72 75 76 76 76 76 76 76 75 75 75 74 74 74
64 63 64 64 65 64 66 65 64 64 64 63 62 64 62 61 63 66 70 72 75 76 76 76 76 75 75 75 75 75 75 74 73
62 62 63 63 63 64 67 67 68 65 63 62 62 61 61 61 61 62 67 70 74 76 77 77 76 76 76 75 75 74 73 74 73
63 63 63 65 68 67 65 60 60 59 60 60 60 60 60 60 61 60 65 68 71 73 74 75 76 77 76 76 75 74 73 73 74
64 66 65 64 59 59 58 57 56 56 56 58 58 58 58 58 58 59 60 66 68 71 73 74 75 75 76 77 76 75 75 74 73
65 63 58 57 57 57 56 56 55 54 56 53 56 56 55 56 57 58 59 59 63 67 71 71 72 72 73 74 75 75 73 73 73
60 57 55 55 55 55 54 53 52 51 50 50 52 53 53 54 56 57 57 57 59 62 66 68 69 70 71 72 72 72 72 72 72
56 55 54 54 53 52 52 51 49 48 49 52 52 52 50 52 57 53 55 56 56 57 62 63 64 66 67 69 70 70 70 71 71
54 53 53 53 51 50 49 49 49 48 47 53 53 50 50 50 54 53 56 54 54 54 54 52 56 62 65 66 67 68 69 69 68
53 51 51 51 49 47 48 47 46 46 46 44 46 46 48 49 55 51 53 52 56 53 56 55 55 54 60 61 64 65 66 66 66
54 50 49 48 48 47 46 45 44 44 44 42 40 39 43 48 53 50 52 51 51 53 55 52 52 52 49 53 60 61 63 63 64
51 50 48 47 46 44 44 43 43 41 43 44 42 37 35 43 45 48 47 51 46 51 48 53 52 50 51 50 54 58 60 61 63
50 49 48 46 45 44 44 46 42 42 40 42 47 42 41 36 36 42 48 44 49 46 46 48 47 51 50 53 54 57 57 60 61
49 48 46 45 44 43 43 42 41 41 40 39 39 39 39 39 36 35 38 45 47 48 47 43 48 48 49 47 50 56 56 57 58

GFSFLT1_sfc_temp_003.txt.gz
Temp
78 78 76 76 75 74 74 73 73 74 74 74 74 74 74 72 64 62 62 64 70 75 76 76 75 75 75 75 76 76 75 75 76
77 77 76 75 74 74 74 74 74 74 74 74 75 75 73 67 62 61 61 61 71 74 76 76 77 77 75 76 76 76 76 76 76
76 76 75 75 75 74 74 74 74 74 74 74 74 73 71 67 63 62 61 65 72 74 75 76 76 77 76 76 76 76 76 76 76
75 75 75 75 74 74 74 73 74 74 74 73 73 72 70 65 63 64 62 67 72 74 75 75 76 77 77 76 76 75 75 76 76
73 72 72 73 73 73 73 73 73 73 73 73 72 70 69 64 63 63 63 70 73 75 75 76 76 76 77 76 76 75 75 75 75
66 68 70 71 73 73 73 73 73 72 70 70 69 68 63 62 61 62 67 71 74 75 75 76 76 76 76 76 76 76 75 75 74
66 66 68 71 71 71 72 72 71 67 64 63 64 61 61 60 61 62 68 71 74 76 76 75 75 76 76 75 75 75 75 75 75
62 61 62 62 64 65 65 63 63 62 60 60 59 60 59 58 59 63 68 71 74 75 75 76 76 76 76 76 75 75 74 74 74
61 61 63 65 63 64 65 61 59 59 59 57 57 58 58 57 58 60 66 69 72 73 74 75 76 76 76 76 76 74 73 73 73
61 65 66 63 62 59 57 56 56 55 55 56 56 56 55 56 57 57 63 67 70 72 74 74 74 74 74 75 75 74 74 74 73
60 61 63 62 56 56 54 53 53 52 52 54 54 53 53 53 54 56 56 65 67 69 72 72 72 72 73 74 73 73 73 73 73
64 62 58 54 54 54 53 53 52 51 53 49 51 52 51 52 54 54 55 56 61 65 68 69 69 70 71 72 72 71 71 71 72
59 55 53 52 52 52 51 49 49 48 47 47 49 49 50 51 52 53 53 53 55 58 64 65 66 67 68 69 70 70 69 70 71
54 52 51 51 50 49 49 48 46 45 47 50 50 48 48 49 54 50 52 52 52 52 58 59 60 63 65 66 67 67 68 68 67
52 51 51 50 49 47 47 46 46 45 44 50 51 46 47 47 48 47 52 50 50 50 50 48 51 59 61 62 64 65 65 66 66
51 49 49 48 47 45 46 45 44 44 43 41 43 44 45 46 49 47 47 48 50 49 50 51 50 49 57 58 61 62 64 64 64
51 48 47 46 45 44 43 42 42 42 42 40 38 38 41 45 52 46 47 46 47 49 51 49 49 47 45 50 58 59 61 62 62
49 48 46 45 44 42 42 41 41 39 41 41 40 35 33 39 42 47 44 48 43 47 45 47 48 47 45 48 49 56 58 59 61
48 47 46 44 43 42 42 44 40 39 38 39 45 40 39 34 33 39 45 41 46 42 42 46 44 45 45 49 52 55 56 58 59
47 46 44 43 42 41 41 40 39 39 38 37 37 36 37 36 33 33 36 42 44 45 45 41 46 44 45 43 47 54 55 56 57

GFSFLT1_sfc_temp_006.txt.gz
Temp
78 79 77 76 75 74 74 73 73 74 74 74 74 74 74 72 63 62 62 63 69 74 75 76 77 76 76 76 75 76 76 75 75
77 77 76 75 74 74 74 74 74 74 74 74 74 74 73 66 63 62 61 61 70 74 75 76 77 77 77 77 76 76 77 76 77
76 76 75 75 74 74 74 74 74 74 74 74 74 73 71 67 63 62 61 65 71 74 75 75 76 76 77 77 76 76 76 77 77
75 75 75 74 74 74 74 74 74 74 74 73 73 72 70 65 63 63 62 67 72 74 75 75 76 76 76 77 76 76 76 76 76
73 72 72 73 73 73 73 73 74 73 73 72 71 69 68 62 62 61 62 70 73 75 75 75 76 76 76 76 76 76 76 75 75
64 68 70 71 72 73 73 73 72 70 68 68 68 66 60 59 60 60 66 71 73 75 76 75 75 75 75 75 76 76 76 76 75
65 65 68 70 70 70 71 70 69 65 60 59 62 58 57 57 58 60 69 72 74 75 75 75 75 76 76 75 75 75 75 75 75
61 60 61 61 64 66 63 60 59 57 57 57 56 56 56 54 57 60 68 71 73 74 75 75 75 75 75 76 76 75 75 74 73
60 61 63 61 64 58 56 56 56 55 55 54 54 53 53 53 54 56 65 70 72 74 74 74 74 74 74 75 75 74 74 74 73
60 65 64 62 57 55 54 53 53 52 53 53 52 52 51 50 53 52 62 66 69 72 71 72 72 73 74 73 73 72 73 73 73
63 62 60 58 55 53 52 50 50 49 49 51 50 49 50 50 51 52 52 63 65 68 69 69 70 71 71 72 72 71 71 71 72
63 59 56 52 52 51 50 50 49 48 50 47 48 49 48 50 50 51 51 52 59 63 65 66 67 67 68 70 69 70 69 70 71
59 54 51 50 50 49 49 47 47 46 45 44 46 46 48 48 48 50 49 50 51 55 61 62 63 64 66 66 67 68 68 68 68
55 50 49 49 48 47 47 46 44 43 45 49 47 45 45 47 51 47 49 49 48 48 56 58 58 60 62 63 64 65 65 66 67
50 49 48 48 47 45 45 44 43 43 42 47 48 43 45 46 45 46 49 47 47 47 48 46 48 57 59 60 62 63 63 64 65
49 48 47 46 45 43 44 42 41 42 42 40 42 42 44 44 45 45 45 45 46 46 46 49 47 46 55 56 59 60 62 63 63
50 47 45 45 43 42 41 40 40 40 40 38 36 36 40 43 48 43 45 43 44 46 49 47 48 45 43 47 57 58 59 61 61
47 46 45 43 42 40 40 39 39 38 39 39 38 34 32 35 40 42 41 44 40 43 43 45 46 45 43 47 48 54 57 59 60
46 45 44 43 41 40 41 42 38 38 36 38 43 38 37 32 31 37 43 39 43 39 39 42 42 43 43 47 50 53 55 57 59
45 44 43 42 41 40 39 38 37 37 36 35 35 34 34 33 31 30 33 39 41 41 39 39 43 43 43 41 44 52 55 56 57

GFSFLT1_sfc_temp_009.txt.gz
Temp
78 79 77 76 75 74 74 74 74 74 74 74 75 75 74 73 75 74 74 74 71 73 75 75 76 78 77 77 76 76 76 76 76
77 77 76 75 75 74 74 74 75 74 74 74 74 74 72 75 75 74 74 73 71 73 75 75 76 77 77 77 78 77 77 77 77
77 76 75 75 75 74 74 74 74 74 74 74 74 73 71 74 74 74 74 71 71 74 75 75 76 76 76 77 77 77 77 77 77
75 75 75 75 74 74 74 74 74 74 74 73 72 71 69 75 74 73 75 69 72 74 75 76 76 76 76 76 77 76 76 76 76
72 72 73 73 73 73 73 73 73 72 71 70 69 68 68 73 72 74 74 70 73 75 76 75 76 76 76 76 76 76 76 76 76
72 69 70 71 72 72 73 72 70 68 67 68 67 67 72 72 72 73 69 71 74 75 75 76 76 76 76 75 75 75 76 76 76
72 68 68 70 69 70 70 69 67 68 71 71 68 71 71 71 71 72 69 72 74 75 75 75 75 75 76 76 76 76 76 75 74
72 73 73 73 68 68 70 69 69 68 68 68 69 68 69 70 70 68 68 72 74 75 75 75 73 74 74 75 74 74 74 74 74
71 72 70 70 65 68 68 67 67 66 66 66 67 66 66 68 68 67 66 69 72 73 73 73 73 74 73 73 73 73 73 73 73
70 66 64 65 67 67 66 66 65 65 65 65 64 65 65 66 67 67 63 66 69 70 70 70 71 71 71 72 72 71 71 71 72
65 63 63 65 65 65 64 64 63 63 63 63 63 63 63 64 65 65 65 63 65 66 67 67 68 68 69 70 70 70 69 70 71
64 64 63 62 63 63 63 62 62 61 62 62 61 62 63 63 63 63 63 63 60 63 64 64 65 65 67 67 67 68 68 68 68
62 59 60 61 61 61 60 59 60 59 59 60 60 61 61 62 62 62 62 61 61 60 60 61 61 62 64 65 65 66 66 66 66
61 60 59 60 59 59 59 58 57 56 57 58 60 58 59 60 61 61 60 59 59 60 58 56 57 59 61 62 63 64 64 64 65
59 58 58 59 57 57 57 56 55 54 53 56 57 57 58 59 60 59 60 58 57 58 57 58 57 56 57 59 60 62 62 63 63
58 57 57 56 55 54 55 55 53 52 53 54 56 56 57 58 59 59 59 56 56 56 57 57 57 57 55 56 57 60 60 61 62
57 56 54 54 53 53 52 52 53 51 50 49 49 48 55 57 58 56 56 55 56 55 55 55 55 55 55 54 55 56 58 59 61
56 55 54 52 53 51 50 50 50 49 49 50 50 47 45 46 53 54 54 54 52 54 52 53 54 53 53 53 53 53 55 57 59
54 53 53 52 51 50 50 50 49 49 46 49 49 49 48 43 43 50 52 51 50 50 51 51 51 52 52 52 51 51 54 56 58
52 52 51 51 50 49 49 48 48 48 47 46 46 46 46 45 42 40 45 47 49 49 49 49 50 51 51 51 51 51 52 55 56

GFSFLT1_sfc_temp_012.txt.gz
Temp
79 79 77 75 75 75 74 74 74 74 74 74 75 75 74 72 81 80 79 78 74 73 74 75 76 76 78 78 77 76 76 76 77
77 77 76 75 75 75 75 75 74 74 74 74 74 74 72 79 80 80 79 79 73 74 75 75 76 76 77 78 77 78 78 77 78
77 76 75 75 75 74 74 74 74 74 74 74 73 72 71 78 80 80 80 74 72 74 75 75 75 76 76 76 77 77 77 77 77
75 75 75 75 74 74 74 74 74 73 73 72 71 70 69 79 80 79 81 70 73 75 76 76 76 76 76 76 76 77 77 77 77
72 73 73 73 73 73 73 73 72 71 70 70 69 69 70 80 79 81 79 71 73 75 76 76 76 76 76 76 75 76 76 77 76
77 70 70 72 72 72 72 70 70 69 68 68 68 69 81 80 80 80 69 72 74 75 75 75 76 76 76 76 76 76 75 75 75
79 71 69 70 70 70 69 69 70 74 79 79 73 80 79 79 78 79 68 72 74 75 75 75 74 74 75 74 74 75 75 75 75
79 80 79 80 71 78 77 78 78 76 76 76 78 76 76 78 78 72 68 71 74 75 74 73 73 74 73 73 73 73 73 73 73
79 81 78 78 76 76 77 78 76 75 75 75 75 75 75 76 77 71 66 70 72 72 71 71 72 71 72 72 72 71 71 71 72
78 77 75 75 77 77 76 76 75 74 74 74 73 72 73 74 76 73 64 66 68 68 69 69 69 69 70 70 70 70 70 70 71
74 68 68 74 75 75 75 73 73 73 72 72 72 71 72 73 73 74 67 63 65 65 66 66 67 67 68 68 68 68 68 68 68
70 66 68 73 73 73 72 72 72 71 71 70 70 71 72 72 71 71 71 68 61 62 63 63 64 64 65 66 66 66 66 66 67
66 68 71 71 71 71 70 68 69 68 68 69 70 70 69 70 70 70 70 68 68 64 59 60 61 61 63 64 65 65 65 65 65
66 69 69 70 68 68 68 66 65 64 65 66 68 67 68 68 69 68 67 65 65 66 62 59 60 59 60 61 63 63 63 63 63
71 69 68 68 66 66 66 64 63 62 62 64 66 67 67 67 68 68 68 66 63 64 63 63 63 59 58 59 59 60 61 62 62
69 68 67 67 65 63 64 63 61 60 61 63 66 66 65 65 66 67 67 64 63 63 63 63 62 62 59 59 57 58 59 60 60
67 66 65 64 63 62 61 60 60 60 59 57 58 58 62 65 64 65 63 62 63 62 61 60 60 60 59 58 55 56 57 58 59
66 64 64 62 62 59 59 59 58 57 58 57 56 55 54 54 63 61 62 61 60 60 59 58 59 58 58 57 56 54 53 56 58
64 63 63 61 61 59 58 59 57 57 54 58 57 56 54 50 50 59 59 59 58 57 57 57 57 57 57 55 53 52 52 54 56
62 62 61 60 59 58 57 56 56 56 56 54 53 54 54 53 48 46 52 56 57 57 55 55 56 56 55 55 53 51 51 52 54

GFSFLT1_sfc_temp_015.txt.gz
Temp
79 78 76 75 75 75 75 75 75 74 74 75 75 75 73 72 82 81 80 79 74 74 75 75 76 76 76 77 78 77 77 76 76
77 77 76 75 75 75 75 75 75 74 74 75 74 73 72 76 81 81 80 77 74 74 76 76 76 76 76 77 77 77 78 78 77
78 76 75 75 75 75 74 74 74 74 74 74 72 72 71 77 79 80 80 73 74 75 76 76 76 76 76 77 77 77 77 77 77
76 75 75 75 74 74 74 74 73 73 72 71 71 70 70 75 80 80 80 72 74 75 77 76 76 76 76 76 76 76 77 77 77
74 74 73 73 73 73 72 72 72 71 71 70 70 70 70 79 79 80 73 72 74 75 76 76 76 76 76 76 76 76 76 75 76
75 70 71 72 72 72 71 71 71 70 70 70 70 69 80 80 79 79 70 72 75 76 75 75 75 75 75 74 74 75 75 75 75
80 72 70 71 70 70 70 71 72 73 79 78 73 79 78 78 77 74 69 72 75 76 74 73 74 74 73 73 73 73 73 73 73
78 77 75 74 69 76 73 76 77 76 76 75 77 77 76 77 77 68 68 72 74 73 72 73 71 72 72 72 72 72 71 72 72
79 80 78 76 77 76 76 77 76 76 76 76 75 75 75 75 75 66 66 70 71 71 71 70 70 70 71 70 70 70 70 70 71
80 79 78 77 78 77 76 76 76 75 74 75 74 73 73 74 74 68 64 66 67 68 68 68 68 68 69 69 69 68 69 69 68
76 75 75 76 76 75 75 74 73 73 73 72 73 72 72 72 72 72 64 63 64 65 66 66 66 67 67 68 68 67 67 67 67
75 72 72 74 74 74 73 73 72 71 72 71 71 71 71 71 70 70 69 63 61 62 63 63 64 64 65 66 67 66 65 66 66
73 72 72 73 72 72 70 68 68 67 68 68 69 69 69 70 70 69 69 67 67 62 61 61 62 62 63 64 65 65 64 64 64
69 69 71 72 70 69 69 66 65 64 64 65 67 66 67 68 69 68 67 66 65 64 63 62 62 61 61 62 62 63 62 62 63
70 71 71 70 68 67 66 65 65 62 62 64 66 65 66 67 67 67 68 66 64 64 62 61 62 62 61 61 61 60 61 61 61
69 70 69 69 66 65 66 64 62 60 61 62 63 65 65 65 66 67 65 65 64 63 62 61 60 60 60 60 59 59 59 59 59
67 68 67 66 64 63 62 61 61 59 59 56 58 56 60 63 65 65 64 63 62 61 61 59 59 58 57 57 58 58 57 57 58
65 67 66 64 63 60 60 60 58 56 58 58 55 52 53 53 62 61 61 61 60 60 59 59 58 57 56 56 56 56 55 55 57
64 66 64 63 62 60 59 60 58 58 54 57 58 56 54 49 48 59 59 60 58 58 58 57 56 56 55 55 55 55 53 54 55
62 64 63 62 61 60 58 58 57 57 55 53 53 54 54 54 48 45 51 55 57 57 57 56 55 55 54 53 53 54 53 53 53

GFSFLT1_sfc_temp_018.txt.gz
Temp
78 77 75 75 75 75 75 75 75 74 74 75 75 74 74 72 69 72 73 69 76 75 76 76 76 76 76 77 77 77 77 77 77
78 76 75 75 75 75 75 75 74 74 74 74 74 73 72 70 73 74 70 72 75 75 77 76 76 76 77 77 77 77 77 77 78
77 76 75 75 75 74 74 74 74 74 74 73 72 71 70 71 71 73 66 73 76 76 77 76 76 77 76 76 76 76 77 77 77
76 75 75 74 74 74 73 73 73 73 72 72 71 71 70 66 70 73 66 73 76 76 76 76 76 76 76 76 76 76 76 75 76
74 73 73 74 73 73 72 72 72 72 72 72 71 70 69 64 68 65 66 74 75 76 76 75 76 76 75 74 75 75 75 75 75
71 70 71 72 72 72 72 72 72 71 70 71 71 70 66 66 66 63 70 73 75 76 75 75 75 74 74 73 73 73 73 73 73
72 68 69 71 71 71 72 72 72 71 66 65 69 65 66 64 63 62 71 73 75 73 73 73 72 73 73 72 72 72 72 72 72
68 64 65 65 66 65 68 66 67 66 65 64 64 64 63 61 59 65 70 73 73 72 71 71 71 71 71 71 70 70 70 70 70
67 67 68 68 66 67 66 65 66 65 65 63 63 62 61 60 58 61 67 69 70 71 70 69 69 69 69 69 69 69 69 69 69
68 67 67 66 66 65 64 63 63 62 63 62 62 61 60 60 58 55 64 66 67 68 68 68 68 68 69 69 68 68 68 68 68
67 65 65 64 64 63 62 61 59 59 59 60 60 59 59 60 58 56 57 64 65 65 66 66 66 67 67 68 67 67 67 66 67
65 63 63 62 63 62 60 59 59 57 59 57 58 59 58 58 60 57 56 57 62 63 64 64 65 65 65 66 66 66 66 65 65
63 62 61 62 61 59 57 56 55 54 53 53 55 55 58 58 58 59 56 55 57 60 63 64 64 64 64 64 65 64 64 63 63
63 61 60 61 58 56 57 54 53 51 51 54 54 54 54 56 62 57 57 56 55 54 61 62 62 63 63 64 64 63 62 62 62
61 64 60 59 56 55 54 53 52 51 50 58 57 54 54 55 54 55 59 55 55 53 53 51 52 61 62 62 62 61 61 61 60
62 63 59 57 55 54 55 53 51 49 49 49 50 51 53 53 53 53 54 54 54 53 51 50 49 50 59 59 60 60 60 59 59
65 62 56 55 53 53 52 51 50 49 48 45 45 44 48 51 54 51 54 51 52 52 53 51 50 48 47 50 58 58 59 58 58
64 62 56 53 51 49 50 49 49 46 47 48 45 41 40 42 48 50 50 51 47 49 49 51 50 49 47 50 50 56 57 56 57
62 61 58 52 51 50 49 51 48 47 45 46 52 46 44 39 37 45 46 47 49 47 46 47 48 48 46 51 53 55 55 56 57
61 60 57 51 50 49 49 48 47 47 45 44 43 43 43 42 38 35 39 44 46 46 46 45 46 48 47 45 49 54 55 55 55

GFSFLT1_sfc_temp_024.txt.gz
Temp
77 76 75 74 74 75 75 74 74 74 74 74 74 74 73 71 66 68 69 68 75 76 77 75 75 75 76 76 76 76 76 76 76
76 75 74 74 75 75 75 74 74 74 74 74 73 73 71 66 65 66 67 68 76 76 77 75 76 76 75 75 75 76 76 77 77
76 75 74 75 75 75 75 74 74 74 73 73 73 72 70 66 64 64 64 73 76 76 77 75 76 76 75 75 76 75 76 75 76
76 75 74 75 74 74 74 74 74 73 73 73 72 71 69 61 63 66 64 74 76 76 75 75 75 75 74 74 74 74 74 74 74
75 73 73 74 74 73 73 73 73 73 73 73 71 68 66 59 61 62 64 75 76 76 75 75 74 74 73 73 73 73 73 73 73
70 69 71 72 73 73 73 73 72 71 70 70 69 66 58 57 59 60 71 75 75 74 73 73 73 72 72 72 72 72 72 72 71
69 67 69 71 71 71 73 73 72 67 62 61 64 58 57 57 59 61 72 74 73 72 72 71 71 71 71 70 70 70 70 70 70
64 64 65 65 66 63 65 63 61 60 58 58 57 56 55 55 57 65 71 73 72 72 70 70 70 70 70 69 69 69 69 69 68
61 62 62 62 61 59 59 58 58 59 58 57 56 55 53 53 55 62 68 70 71 70 70 69 69 69 69 69 69 68 68 68 67
61 60 61 61 60 58 57 57 57 56 56 56 56 54 52 52 54 55 65 67 68 69 69 68 68 68 68 68 67 67 67 66 66
61 60 60 59 58 57 57 56 55 53 53 54 54 52 52 51 52 53 57 65 66 67 67 67 67 67 67 67 66 66 65 65 65
61 59 58 57 57 57 55 54 52 52 53 51 52 52 50 51 51 51 52 56 63 65 66 66 66 66 66 66 66 65 64 64 64
60 59 57 57 56 55 53 52 50 49 49 48 50 50 51 50 50 51 50 51 53 60 64 64 64 64 65 65 65 64 63 63 62
62 60 56 56 54 53 54 49 49 47 47 50 49 49 49 50 54 49 50 50 50 49 61 61 61 62 63 63 63 63 63 62 61
62 57 56 55 53 51 51 49 47 46 46 54 52 48 48 49 48 49 52 50 50 48 49 47 50 60 61 61 62 62 62 61 61
62 58 56 53 53 51 50 48 48 45 44 46 46 47 47 48 48 48 48 49 48 48 47 46 45 47 57 58 60 60 60 60 60
62 61 55 53 51 50 49 49 46 45 43 44 42 43 46 47 47 46 48 45 46 47 48 46 46 44 43 47 58 58 59 59 60
62 60 55 52 50 49 48 47 47 44 43 43 44 40 41 39 43 44 44 44 43 43 44 45 45 45 43 46 48 55 57 58 59
61 59 57 53 50 51 47 48 46 45 43 43 46 42 42 39 40 42 42 42 44 41 41 41 42 42 41 46 50 54 56 58 59
59 58 56 53 50 51 51 45 45 44 43 42 41 40 39 38 37 36 38 40 41 41 40 40 39 41 40 40 45 54 55 56 57

GFSFLT1_sfc_temp_027.txt.gz
Temp
77 76 75 74 74 74 74 74 74 74 74 74 74 74 73 69 64 64 67 66 74 76 77 75 75 75 75 76 76 76 76 76 76
76 75 74 74 74 74 74 74 74 74 74 74 73 72 70 64 64 65 65 67 76 77 77 76 76 76 75 75 75 75 76 76 76
75 75 74 74 74 74 75 74 74 74 73 73 73 72 69 65 63 63 64 72 76 76 76 75 75 75 75 75 75 75 74 74 74
75 74 74 74 74 74 74 74 74 73 73 73 72 70 68 61 62 65 62 73 76 76 75 75 75 74 74 74 74 74 74 74 74
74 73 73 74 74 73 73 73 73 73 73 72 70 67 65 59 60 61 62 75 76 75 75 74 74 73 73 73 73 73 73 72 72
70 69 71 72 73 73 73 73 72 71 69 69 67 64 57 57 58 59 69 75 75 74 73 73 72 72 71 72 71 71 71 71 70
68 67 69 71 72 72 73 73 71 65 59 58 61 55 55 56 58 60 71 74 73 72 71 71 71 71 70 70 70 70 69 69 69
65 64 65 64 66 63 64 61 59 58 57 56 55 54 54 54 57 64 72 72 73 72 71 70 70 70 70 69 69 69 68 68 68
62 62 62 62 61 58 58 57 57 57 56 55 54 53 52 53 55 61 68 71 71 70 70 69 69 69 69 69 68 68 67 67 67
61 61 61 60 59 57 56 56 55 55 54 54 53 51 51 52 53 55 65 68 69 69 69 69 68 68 68 68 67 67 66 66 66
61 59 60 59 58 56 55 54 54 52 52 52 51 50 51 51 52 53 57 66 67 67 68 67 67 67 68 67 66 65 65 65 65
61 59 58 57 56 56 54 52 51 51 52 50 50 50 48 50 51 51 52 55 63 66 66 66 66 66 66 66 66 65 64 64 63
59 58 57 56 55 54 52 51 49 48 48 48 48 49 49 49 49 50 49 50 52 60 64 64 64 64 65 65 65 64 64 63 62
59 58 55 55 53 52 53 49 49 47 47 49 47 47 47 48 52 48 49 49 49 49 61 61 61 62 63 63 64 64 63 62 61
60 56 56 55 52 51 50 49 45 46 46 52 49 46 46 47 46 47 50 48 48 47 47 46 48 60 61 61 62 62 62 62 61
62 60 59 58 57 51 51 48 47 44 44 46 46 45 46 46 46 46 46 47 46 46 46 45 44 45 55 57 59 61 61 61 61
63 62 60 58 54 50 49 48 45 44 42 43 42 42 45 45 45 44 47 44 45 45 46 44 44 43 42 45 56 58 60 60 60
65 63 61 58 55 51 49 48 47 44 42 42 44 39 40 39 42 42 42 42 42 42 43 43 43 42 41 43 45 53 56 58 60
64 62 59 58 55 51 50 49 46 45 43 42 45 41 41 40 39 41 40 40 42 40 40 40 41 41 40 45 50 54 55 57 58
59 59 58 56 55 53 50 46 45 44 43 42 40 39 38 38 38 37 37 39 40 40 39 38 38 39 39 40 45 52 53 55 56

GFSFLT1_sfc_temp_030.txt.gz
Temp
76 75 75 74 74 75 74 74 74 74 74 75 74 73 72 69 64 64 66 65 73 77 77 75 75 75 75 76 76 76 76 76 76
76 75 74 74 74 74 74 74 74 74 74 74 73 72 69 63 63 64 65 66 77 77 76 76 76 76 75 75 75 75 75 75 76
75 75 74 74 74 75 75 74 74 74 74 74 73 71 68 64 62 63 63 71 76 76 75 75 75 75 75 75 74 74 74 75 74
75 74 74 74 74 74 74 74 74 74 74 73 71 69 67 60 61 64 62 72 77 76 75 75 74 74 74 74 74 74 73 73 74
74 73 73 74 74 74 73 73 73 73 72 71 69 67 65 58 59 59 61 75 76 75 74 74 74 73 73 72 73 72 72 72 72
69 69 71 72 73 73 73 73 72 70 68 68 67 63 56 56 57 58 68 74 75 74 73 73 72 72 71 71 71 71 71 70 70
68 67 70 71 71 72 73 72 69 64 58 57 60 54 54 55 58 59 70 73 74 72 71 71 71 71 70 70 70 70 69 69 69
65 64 65 64 66 62 62 59 58 57 56 54 53 53 54 55 57 64 71 73 74 73 71 70 70 70 70 69 69 68 68 68 68
63 63 62 62 61 58 57 56 55 55 55 53 52 52 53 53 55 61 68 71 71 71 70 70 69 69 69 68 68 67 67 67 67
62 61 61 60 59 57 55 55 54 54 53 52 52 51 51 52 53 55 66 68 69 70 69 69 69 69 68 68 67 66 66 66 66
61 60 60 59 58 55 55 54 53 51 52 51 50 49 50 51 52 53 57 66 67 68 68 68 68 68 68 67 66 65 65 65 65
61 60 59 58 56 55 53 52 51 50 51 49 49 49 48 50 50 51 51 55 64 66 67 67 67 66 67 67 66 65 64 64 63
59 59 59 56 54 53 52 51 49 48 48 47 47 47 48 48 48 49 49 49 51 60 64 64 65 65 65 65 65 65 64 63 62
60 59 57 55 53 52 52 49 49 47 46 48 46 46 46 47 51 47 48 48 48 48 60 60 61 62 63 63 64 64 63 63 62
60 57 56 55 52 50 50 48 46 46 46 51 47 44 45 45 45 46 49 47 47 46 46 45 47 58 60 61 62 62 63 62 62
59 56 57 55 55 55 55 48 47 44 44 45 44 44 44 44 44 44 44 46 45 45 44 44 43 45 54 55 58 60 62 62 62
61 61 59 59 56 55 54 48 45 43 42 43 42 42 44 43 44 43 45 43 44 44 44 43 43 41 41 45 54 56 59 60 61
62 60 60 60 59 56 54 49 48 43 41 42 44 39 40 39 41 41 41 41 40 40 42 42 42 41 40 43 46 54 56 58 60
62 60 59 61 59 56 54 52 47 45 42 41 44 40 41 40 39 40 39 39 41 39 39 39 40 39 39 45 50 53 54 56 57
60 59 58 57 56 57 55 50 50 46 43 41 39 39 38 38 38 37 37 38 39 39 39 38 37 38 38 39 44 51 52 54 56

GFSFLT1_sfc_temp_033.txt.gz
Temp
77 76 75 75 75 75 75 75 75 75 75 75 74 73 72 71 76 76 75 76 76 77 76 76 75 76 76 75 76 76 76 76 76
76 75 74 74 75 75 75 75 75 74 74 74 74 72 69 75 76 76 76 76 77 77 76 76 76 76 76 75 75 76 75 75 75
75 75 74 75 75 75 75 75 74 74 74 74 73 70 69 73 75 74 76 74 77 76 76 75 75 75 75 74 74 74 74 75 74
75 75 74 75 75 75 74 74 74 74 73 72 71 69 67 75 74 75 77 73 77 76 75 75 75 74 74 74 73 73 73 73 73
74 73 74 74 74 74 74 74 74 73 72 71 69 67 66 73 72 75 77 75 76 75 74 74 73 73 73 72 72 72 72 72 72
75 71 71 73 73 73 73 73 71 69 69 68 67 66 72 73 74 75 70 75 75 74 73 73 73 72 72 71 71 71 70 70 70
75 71 70 72 72 72 73 71 68 68 71 70 67 71 71 72 73 75 71 74 74 73 72 72 71 71 70 70 70 70 69 69 69
74 74 74 74 69 73 71 70 71 69 70 69 70 69 70 72 73 73 72 74 74 72 71 71 70 70 70 69 69 68 68 68 68
72 72 72 72 72 70 70 70 69 68 67 68 68 68 69 70 71 72 69 72 72 71 71 70 70 69 69 68 68 67 67 67 67
72 72 71 71 70 70 68 69 68 68 67 67 67 66 67 68 70 72 66 69 70 70 70 70 69 69 69 68 67 66 66 66 66
71 70 70 70 70 69 68 68 67 67 67 65 65 65 65 67 67 69 70 67 68 69 69 69 69 69 68 67 66 66 65 65 65
71 70 69 70 69 67 66 65 65 64 64 64 64 64 64 65 65 66 67 68 65 67 68 67 67 67 67 67 66 66 65 64 64
70 69 69 69 67 65 64 63 62 63 63 62 62 62 62 63 64 64 65 64 66 65 65 66 65 66 66 66 66 65 64 63 63
70 69 69 67 65 64 63 61 63 61 60 60 60 61 61 62 61 62 61 62 62 64 61 61 62 63 63 64 64 64 64 63 63
68 68 68 66 63 62 62 61 59 60 60 60 58 59 59 60 61 61 61 60 59 60 59 60 60 58 60 60 61 63 63 63 63
67 66 66 64 63 62 62 60 56 56 58 57 56 57 57 57 58 59 60 58 58 58 58 59 59 59 54 55 58 60 61 62 62
67 66 64 63 62 61 60 55 51 56 56 58 56 54 55 56 56 57 57 57 57 56 56 56 56 56 56 54 54 56 58 60 61
68 66 65 62 63 60 58 56 54 54 53 55 59 51 54 53 54 53 55 55 55 55 54 54 53 53 54 54 54 55 55 58 59
67 66 64 62 62 62 61 60 58 56 52 50 51 52 55 54 51 52 52 53 53 54 53 53 52 52 52 50 51 52 53 55 57
65 65 64 61 61 61 59 57 57 56 53 53 48 49 50 52 54 50 49 49 52 53 53 52 51 50 50 52 50 50 52 54 55

GFSFLT1_sfc_temp_036.txt.gz
Temp
77 76 75 75 75 75 75 75 75 75 75 75 74 74 72 72 82 82 79 81 77 77 77 76 76 76 75 75 76 75 76 76 76
76 75 75 75 75 75 75 75 75 74 74 74 73 72 71 82 81 82 81 81 77 76 76 76 76 76 75 75 75 75 75 75 75
75 75 75 75 75 75 75 75 74 74 74 74 72 70 72 79 81 80 81 75 77 76 76 75 75 75 74 74 74 74 74 74 74
75 75 75 75 75 75 75 74 74 74 73 73 71 69 69 82 81 82 84 73 77 76 75 74 74 74 74 73 73 73 73 73 73
74 73 74 74 75 74 74 74 74 73 72 70 69 68 69 81 80 82 81 73 76 74 74 74 74 73 72 72 72 72 72 71 71
76 73 72 73 73 73 74 73 71 70 69 68 67 67 82 82 82 83 72 74 74 74 73 73 73 72 71 71 71 70 70 70 70
81 74 70 72 72 72 73 71 70 71 80 77 69 82 81 82 81 81 73 74 74 73 72 72 71 71 70 70 70 69 69 69 69
80 81 78 79 70 79 75 74 79 78 80 79 81 80 80 82 81 76 72 74 73 72 71 71 71 70 70 69 69 68 68 68 68
80 80 79 80 80 79 79 79 78 77 77 78 78 78 79 81 81 74 70 72 72 72 71 70 70 69 69 68 68 67 67 67 67
81 80 79 79 81 80 78 78 78 77 77 77 77 76 77 78 79 77 67 69 70 71 70 70 70 69 68 67 67 66 66 66 66
80 78 76 77 79 80 79 78 77 77 77 75 76 75 76 76 76 77 72 67 69 69 70 70 69 69 68 67 66 66 65 65 65
80 78 74 77 79 78 77 77 76 75 75 74 74 74 75 74 74 75 74 70 65 68 68 68 68 68 68 67 66 66 65 64 64
80 79 76 79 78 76 75 74 73 73 73 73 73 73 73 73 73 72 73 72 72 67 66 67 67 67 66 66 66 65 64 64 63
79 79 79 79 77 74 74 73 73 71 71 71 71 71 71 71 71 71 70 70 70 71 63 63 63 64 64 64 65 64 64 64 63
78 78 78 78 75 73 72 71 71 71 70 69 68 68 69 70 70 70 70 69 68 69 66 65 63 60 60 61 61 62 63 63 63
77 77 77 77 74 73 72 71 67 66 69 66 65 65 66 67 68 69 69 67 67 67 66 66 66 63 57 57 58 60 61 62 63
76 75 75 75 73 72 70 68 65 65 64 65 65 60 61 64 66 67 67 67 66 65 64 64 64 63 64 59 55 57 59 60 61
76 74 74 74 73 71 69 67 65 61 61 67 66 59 59 60 62 62 63 64 63 64 63 63 62 62 62 57 56 55 55 57 59
75 74 73 72 70 70 68 66 66 66 59 60 63 61 64 59 54 59 60 62 62 62 61 61 60 60 60 54 52 52 53 55 57
72 72 72 70 69 70 68 66 66 67 64 60 56 57 55 58 60 57 54 58 60 61 61 60 60 58 58 57 53 51 52 54 55

GFSFLT1_sfc_temp_039.txt.gz
Temp
77 76 75 75 75 75 75 75 75 75 75 75 75 74 74 73 83 82 79 77 77 77 76 76 75 76 76 76 75 75 75 75 76
76 75 75 75 75 75 75 75 75 74 74 74 73 72 72 79 82 82 81 78 77 77 76 76 76 75 75 75 75 75 75 75 74
75 75 75 75 75 75 75 75 74 74 74 74 72 71 72 80 81 80 79 75 77 77 76 75 75 75 74 74 74 74 74 74 74
75 75 75 75 75 75 75 74 74 74 73 72 71 70 71 81 80 82 80 74 77 76 75 74 74 74 74 73 73 73 73 72 72
74 73 74 75 75 74 74 74 74 73 72 71 70 70 71 81 79 80 77 74 76 74 74 74 74 73 72 72 72 72 71 71 71
75 74 72 73 74 74 74 73 72 70 69 69 69 68 80 81 80 80 73 74 75 74 73 73 72 72 71 71 71 70 70 70 70
81 73 71 72 73 73 73 72 71 69 78 75 69 78 80 80 79 77 73 74 74 73 72 72 71 71 70 70 70 70 69 69 69
81 79 76 77 70 76 74 72 76 79 80 79 80 79 79 80 80 73 72 74 73 72 72 71 71 70 70 69 69 69 68 68 68
81 81 80 79 78 80 78 78 79 78 79 79 79 79 79 80 80 72 70 72 73 72 71 71 70 70 69 68 68 68 67 67 67
79 81 78 80 82 81 79 79 79 78 78 78 78 78 78 79 79 74 67 70 71 71 71 71 70 69 68 68 67 67 67 67 66
81 80 74 75 81 81 80 79 78 78 78 77 77 77 77 78 77 75 70 68 69 70 70 70 70 69 69 67 67 66 66 66 65
82 81 76 74 75 81 80 79 78 77 77 76 76 76 76 76 75 75 72 68 66 68 70 70 69 69 69 68 67 66 65 64 64
81 81 77 74 75 79 78 76 74 74 74 74 74 74 74 75 74 74 74 71 70 66 67 68 68 68 67 67 66 66 65 64 64
81 81 81 75 75 76 76 75 74 72 72 72 72 72 72 73 73 72 71 71 70 68 64 64 65 66 65 65 65 65 64 64 64
81 80 80 81 77 75 75 73 73 72 71 71 70 69 70 71 70 70 70 69 67 69 64 61 61 62 63 62 62 63 63 63 64
79 78 79 79 78 75 75 73 70 69 71 66 65 66 67 68 68 69 68 67 66 66 65 64 64 59 60 59 60 60 62 62 63
79 77 77 77 76 75 73 71 68 67 68 63 63 58 61 63 66 67 67 66 65 64 64 63 62 61 59 57 57 58 59 60 61
78 77 76 76 75 73 72 70 68 63 65 67 64 59 57 58 62 62 64 64 63 63 62 62 61 61 59 55 55 56 56 58 59
77 74 74 73 74 72 72 71 67 65 59 61 66 65 63 56 51 57 59 62 62 61 60 60 60 59 57 56 54 54 54 56 58
73 74 73 69 71 71 70 69 65 65 62 59 58 60 58 59 56 50 52 58 59 61 61 59 59 58 57 55 53 53 53 54 56

GFSFLT1_sfc_temp_042.txt.gz
Temp
77 76 75 75 75 76 76 75 75 75 75 75 75 74 74 73 74 75 74 71 77 77 76 76 76 76 76 76 76 76 76 76 76
75 75 75 75 75 76 75 75 75 74 74 74 74 73 73 71 75 71 72 71 77 77 76 76 75 75 75 75 75 75 75 75 75
75 75 75 75 75 76 75 75 74 74 74 73 72 72 71 74 72 70 68 74 77 77 76 75 75 75 74 74 74 74 73 74 74
75 75 75 75 75 75 74 74 74 74 73 72 71 71 71 68 71 74 68 75 77 76 75 75 74 74 73 73 73 73 73 73 73
74 73 74 75 75 74 74 74 74 73 72 71 71 70 70 67 70 67 67 75 76 75 74 74 73 73 72 72 72 71 71 71 71
70 71 72 73 74 74 74 73 72 70 69 70 70 69 65 67 67 67 73 75 75 75 74 73 72 72 71 71 70 70 70 70 70
73 69 70 72 72 72 73 73 71 69 64 63 68 63 67 67 66 67 73 75 74 73 72 72 71 71 70 70 70 70 69 69 69
70 66 66 66 68 67 68 66 65 64 65 65 64 67 67 65 65 69 72 74 73 73 72 71 71 70 70 69 69 69 68 68 68
70 69 67 67 67 67 65 64 65 66 68 67 66 67 66 65 66 66 70 72 73 73 72 71 70 70 69 69 68 68 68 67 67
70 70 71 70 69 68 68 67 66 66 66 66 67 66 66 66 66 62 67 70 72 72 72 71 70 70 69 68 68 67 67 67 66
70 70 71 69 68 69 68 67 65 65 64 65 65 65 65 65 63 63 63 68 70 71 71 71 70 70 69 68 67 66 66 66 66
71 70 67 68 71 68 69 68 66 64 65 63 64 64 64 64 64 63 61 63 66 69 71 71 70 70 69 68 67 66 65 65 65
71 69 67 67 68 71 66 65 63 62 61 61 61 62 63 64 64 62 62 60 62 65 69 69 69 69 69 68 67 66 65 65 64
72 70 68 68 66 69 70 65 62 60 59 61 59 60 60 62 65 62 61 59 59 58 65 66 66 67 68 67 67 66 65 64 64
72 70 69 70 67 67 69 66 62 60 59 65 62 58 58 59 59 60 62 59 59 57 56 55 57 64 66 66 66 65 64 64 64
70 71 70 70 69 69 69 64 61 58 59 56 54 55 57 57 57 58 57 58 58 55 55 54 53 56 63 63 63 63 63 63 64
70 69 68 69 68 67 67 65 58 57 57 53 51 48 51 54 56 56 58 56 56 57 57 55 54 53 52 53 61 61 62 62 62
69 72 67 66 66 66 66 64 62 58 55 58 53 48 47 48 52 55 55 56 53 55 56 57 57 54 51 55 55 59 59 60 61
70 69 70 69 64 64 64 63 62 57 57 53 60 55 53 48 46 52 54 55 56 56 54 55 55 55 50 53 54 57 56 58 59
68 69 68 68 67 65 61 61 61 61 57 56 50 51 50 50 47 43 48 52 54 54 55 55 54 54 52 49 53 55 56 57 57

GFSFLT1_sfc_temp_045.txt.gz
Temp
76 76 75 75 75 76 76 75 75 75 75 75 75 75 74 72 70 69 72 70 77 76 76 76 76 76 76 76 76 76 76 75 75
75 75 75 75 75 75 75 75 74 74 74 74 74 74 72 70 68 67 68 70 77 77 76 76 75 75 75 75 75 75 75 75 75
75 75 75 75 76 75 75 75 74 74 74 73 73 72 71 71 67 66 66 74 77 76 75 75 75 74 74 74 74 74 73 74 74
75 75 75 75 75 75 74 74 74 74 73 73 72 72 70 67 66 70 66 75 77 76 75 74 74 73 73 73 73 72 72 73 73
74 73 74 75 75 74 74 74 74 73 72 72 72 70 69 64 65 65 66 75 76 75 74 73 73 72 72 72 71 71 71 72 72
70 69 71 73 73 73 74 73 73 71 70 70 70 69 63 62 64 65 72 75 75 75 74 73 72 71 71 71 70 70 70 70 70
70 68 70 72 72 72 73 73 71 68 62 63 68 62 62 62 64 66 73 75 75 74 72 72 71 71 70 70 70 70 69 69 69
65 64 66 66 67 66 68 66 63 61 61 61 61 63 62 61 64 68 72 74 74 73 72 71 71 70 70 70 69 69 69 68 68
65 65 63 64 65 63 62 61 62 62 62 62 62 63 63 61 62 66 70 73 73 73 72 71 70 70 69 69 69 68 68 67 67
67 65 64 64 64 64 62 62 62 61 63 63 63 63 62 61 62 62 67 70 72 72 72 71 71 70 69 69 68 68 67 67 67
68 66 65 64 65 65 66 64 62 61 62 62 62 62 62 60 60 60 63 68 70 71 72 71 71 70 69 68 68 67 67 66 66
70 67 65 68 67 66 64 64 63 61 61 61 61 61 61 59 59 60 60 63 66 69 71 71 71 70 69 68 67 67 66 66 65
67 67 65 66 66 65 64 63 61 60 59 58 59 59 60 60 59 59 59 59 61 66 69 70 70 70 70 69 68 67 66 65 65
69 67 66 66 66 66 66 63 64 58 57 58 58 57 58 59 62 58 58 57 58 57 65 67 67 68 69 69 69 67 66 65 65
71 68 66 66 65 66 63 62 61 62 58 63 60 56 56 57 57 57 61 57 57 56 57 57 58 65 68 68 68 67 66 65 65
68 69 66 67 66 66 66 63 60 57 56 55 52 52 54 55 55 56 55 56 57 54 55 53 53 58 66 67 67 67 66 65 65
66 69 66 64 66 65 64 62 56 57 56 52 49 48 51 53 55 54 56 55 56 56 56 54 53 53 53 55 64 65 65 65 65
66 65 64 63 62 64 65 63 60 58 53 54 52 45 46 47 50 54 53 54 53 55 56 55 55 53 51 56 58 62 63 64 64
67 66 65 64 65 64 61 63 62 57 54 51 58 52 51 47 46 48 50 52 54 55 53 56 56 55 52 54 55 59 60 62 63
66 66 65 62 63 64 63 61 58 58 57 56 50 48 49 48 45 44 45 49 52 55 56 54 54 54 52 50 53 58 58 61 62

GFSFLT1_sfc_temp_048.txt.gz
Temp
77 76 76 75 75 76 75 75 75 74 75 75 75 75 74 71 66 67 70 69 76 76 77 76 76 76 76 76 76 76 75 75 75
76 75 75 75 75 75 75 75 74 74 74 75 74 74 72 68 65 66 67 69 77 76 76 75 75 75 74 75 75 75 75 75 76
75 75 75 75 75 75 75 75 74 74 74 74 73 72 71 68 65 65 65 74 76 76 75 74 74 74 74 74 74 73 74 74 74
75 75 75 75 75 75 74 74 74 74 74 73 73 71 69 64 64 68 65 74 76 75 74 74 73 73 73 73 73 73 72 73 73
74 73 74 75 75 74 74 74 74 73 73 72 72 70 68 62 63 64 64 75 76 75 74 73 73 72 72 72 72 72 72 72 72
69 69 71 73 73 73 74 73 73 71 70 71 71 68 61 60 62 63 71 75 76 74 73 72 72 71 71 71 71 71 71 71 71
68 67 69 72 72 72 73 73 72 68 61 61 67 61 60 60 63 64 72 75 75 75 73 72 71 71 70 70 70 70 70 70 70
64 63 65 66 67 66 67 65 62 60 59 60 59 60 59 59 63 67 72 75 74 73 72 71 71 70 70 70 69 69 69 68 68
62 62 63 64 65 63 62 61 61 60 60 59 60 60 59 59 62 64 70 73 74 73 72 71 71 70 70 69 69 68 68 68 68
62 63 62 63 64 63 61 60 60 59 60 60 60 61 59 59 61 62 66 70 72 73 72 71 71 70 70 69 68 68 67 67 67
65 64 63 63 64 64 63 61 60 60 59 60 60 61 59 59 60 60 63 68 70 72 72 72 71 70 70 69 68 68 67 67 67
66 66 65 65 64 64 62 62 60 60 62 61 63 61 59 58 59 59 60 63 66 69 72 72 71 70 70 69 68 68 67 66 66
66 67 66 66 65 65 62 62 59 58 57 59 59 59 58 58 57 58 58 59 61 66 70 71 71 71 70 70 69 68 67 66 66
68 68 68 64 64 64 64 61 60 57 56 57 57 56 56 57 60 56 57 57 58 58 64 67 68 69 70 70 69 68 67 66 66
67 67 67 65 63 64 61 62 59 58 58 61 60 55 55 55 54 56 59 56 57 56 57 58 60 66 69 70 70 69 67 66 66
65 64 63 63 64 65 64 63 60 57 55 58 57 55 54 53 54 54 56 56 57 55 55 56 55 60 66 68 69 69 68 67 66
65 64 64 62 66 62 62 61 58 58 54 53 52 54 53 53 55 52 55 55 56 55 55 53 53 54 55 57 67 68 68 68 67
64 64 63 62 63 64 63 62 59 60 53 52 52 45 48 46 49 52 53 53 51 54 55 54 54 53 53 58 61 64 66 67 67
65 65 64 64 62 62 62 63 62 57 55 51 54 51 49 48 47 48 48 49 51 50 50 54 54 55 54 55 56 60 62 65 66
64 65 64 62 62 62 61 59 59 59 61 52 51 49 47 46 46 46 46 48 49 52 53 54 55 55 54 53 54 59 61 63 64

GFSFLT1_sfc_temp_051.txt.gz
Temp
78 77 76 75 75 75 75 75 74 75 75 75 75 74 74 70 66 65 69 69 76 77 75 76 76 76 76 76 76 75 75 76 75
77 76 76 75 75 75 75 75 74 74 74 75 75 74 72 65 64 64 66 69 77 76 76 75 75 75 75 76 75 75 75 76 76
76 75 75 75 75 75 75 74 74 74 74 74 74 72 70 67 64 64 64 73 76 76 74 74 74 74 74 73 74 74 74 75 75
75 75 75 75 75 75 74 74 74 74 74 73 73 71 69 63 63 66 64 73 76 76 75 74 73 73 73 72 73 73 73 73 74
74 73 73 75 74 74 74 74 74 73 73 72 72 69 68 61 62 63 63 74 76 75 74 73 72 72 72 72 72 72 72 72 72
69 69 71 73 73 73 73 73 73 71 70 70 70 66 60 59 60 61 68 74 76 74 74 72 72 71 71 71 71 71 71 71 71
67 66 69 72 72 72 73 73 72 67 60 60 64 59 58 59 61 62 70 74 76 74 73 72 71 71 70 70 70 70 70 70 70
64 63 65 65 67 65 67 65 62 59 59 59 58 59 59 57 61 65 71 74 75 74 72 71 71 70 70 70 69 69 69 69 69
61 61 62 63 64 63 62 60 60 59 59 58 58 58 58 57 61 63 69 73 74 74 72 72 71 70 70 69 69 68 68 68 68
61 61 62 62 63 62 61 60 60 58 59 59 60 61 58 58 60 61 65 70 73 73 73 72 71 70 70 70 69 68 68 68 68
61 61 61 61 62 63 62 61 60 59 58 59 61 61 60 59 59 61 62 67 70 72 73 72 72 71 70 70 69 68 68 67 67
64 63 61 62 62 62 62 61 60 59 59 57 59 60 59 58 59 60 60 62 66 69 72 72 72 71 71 70 69 68 68 67 67
64 64 63 63 61 61 61 61 60 58 57 57 58 58 58 57 56 58 58 59 61 65 69 71 72 71 71 71 70 69 68 67 66
66 65 65 63 62 62 62 60 59 57 56 56 57 56 56 57 59 56 57 57 58 58 63 66 68 69 71 71 70 69 68 67 66
65 66 65 63 63 62 60 61 57 57 57 60 59 57 55 55 54 55 58 56 57 56 57 58 61 66 69 71 71 70 69 67 66
64 65 63 62 63 64 63 61 60 58 54 54 54 54 57 54 54 53 55 55 56 55 57 56 55 58 66 69 70 71 70 68 67
64 63 62 62 63 61 61 60 58 57 53 53 50 53 54 52 55 52 55 55 55 56 57 55 55 55 55 58 67 69 70 69 68
64 64 63 62 61 61 61 60 59 60 52 53 56 50 49 47 50 50 51 53 50 53 54 55 56 55 56 58 62 64 67 69 69
63 63 63 62 61 60 61 62 61 58 57 50 53 53 53 51 51 50 49 48 50 49 50 53 54 55 56 57 58 61 63 67 68
60 61 62 61 61 61 60 59 58 59 60 55 50 52 50 49 48 51 51 47 48 49 51 54 55 56 57 55 56 60 63 65 66

GFSFLT1_sfc_temp_054.txt.gz
Temp
78 77 76 75 75 75 75 75 75 75 75 75 75 74 73 69 64 65 69 69 77 76 76 76 76 76 76 76 76 76 76 75 76
77 76 75 75 75 75 75 75 74 74 75 75 75 74 71 64 63 64 66 68 77 76 75 75 75 76 75 75 75 76 76 76 76
76 75 75 75 75 75 75 74 74 74 74 74 74 72 70 66 63 63 64 73 76 76 75 74 74 74 74 74 74 75 75 75 75
75 75 74 75 75 74 74 74 74 74 74 73 72 71 69 62 62 65 63 71 76 76 75 74 73 73 72 72 73 73 74 73 74
74 73 73 74 74 74 73 73 73 73 73 72 71 69 67 60 61 61 62 73 75 75 74 73 72 72 72 71 72 72 72 72 73
67 68 71 73 73 73 73 73 73 71 68 69 69 66 59 58 59 60 67 73 75 75 74 72 72 71 71 71 71 71 71 72 71
67 66 69 71 72 72 73 73 72 66 59 59 63 59 58 58 59 60 69 73 76 75 73 72 71 71 70 70 70 70 70 70 70
63 62 64 64 66 65 66 64 61 59 58 58 57 58 57 56 59 63 69 73 75 74 73 71 71 70 70 70 69 69 69 69 69
61 61 62 62 63 63 62 60 60 58 58 56 57 58 60 58 58 61 67 71 75 74 73 72 71 70 70 70 69 68 68 68 68
60 60 60 61 62 62 61 60 59 58 58 58 57 58 58 57 57 59 64 68 72 74 73 73 72 71 70 70 69 68 68 68 68
60 60 60 61 61 62 62 60 59 59 58 58 58 58 57 57 57 59 61 66 69 72 73 73 72 72 71 70 69 69 68 68 67
62 61 60 61 61 62 61 61 60 59 59 57 58 58 58 57 57 58 59 61 65 68 73 73 73 72 72 71 70 69 68 68 67
62 61 61 61 61 61 60 60 59 58 58 57 57 58 57 58 57 56 58 59 60 64 69 71 72 72 73 72 71 70 69 68 67
64 63 63 61 60 60 60 59 59 58 58 58 57 56 56 57 59 56 56 57 59 59 63 66 68 69 71 72 72 71 69 68 67
64 64 63 62 60 60 59 60 58 59 58 59 58 55 56 60 55 56 57 56 57 57 57 58 62 65 69 71 72 72 71 69 68
63 63 61 61 62 63 61 60 59 57 54 56 54 53 55 55 56 54 54 54 55 55 56 58 57 59 66 69 70 72 72 70 69
64 62 62 61 61 60 60 59 57 57 53 55 50 54 55 52 54 52 53 53 53 54 55 54 54 55 55 59 67 70 71 72 70
64 64 63 61 60 60 60 59 59 59 53 53 57 51 51 51 52 51 50 51 49 51 52 53 53 53 53 58 62 65 67 70 71
61 62 62 62 61 60 60 60 60 57 59 52 54 54 54 52 51 54 53 50 49 48 49 52 53 56 56 58 59 61 64 68 69
57 57 58 60 61 62 60 58 57 58 59 56 52 53 51 50 49 51 53 52 51 50 50 52 55 56 54 55 56 60 62 64 65

GFSFLT1_sfc_temp_057.txt.gz
Temp
78 76 75 75 75 75 75 75 75 75 75 75 75 74 72 72 77 77 77 79 77 77 76 76 76 76 76 76 76 76 75 76 76
77 75 75 75 75 75 75 75 75 75 75 75 75 73 70 77 76 76 77 78 77 77 75 75 75 75 75 75 76 76 76 76 75
77 75 75 75 75 75 75 75 74 74 74 74 74 72 70 74 75 75 77 74 77 76 75 74 74 74 74 74 75 75 75 75 75
75 75 75 75 75 74 74 74 74 74 74 73 72 70 68 77 76 76 77 72 76 76 75 74 73 73 73 72 73 73 74 74 74
74 74 74 74 74 74 73 74 74 73 73 72 70 69 67 76 74 76 77 72 75 75 74 73 72 72 72 72 72 73 73 73 73
74 70 71 73 73 73 73 73 72 70 69 70 69 67 75 75 75 76 70 72 75 76 74 72 72 71 71 71 71 71 72 72 72
74 70 69 72 72 72 73 73 71 69 74 74 69 75 74 75 74 75 69 72 75 75 74 72 71 71 70 70 70 71 71 70 70
73 73 74 74 69 75 74 74 74 72 73 72 74 73 73 75 74 73 68 72 74 74 73 72 71 71 70 70 70 70 69 69 69
71 72 72 72 73 73 73 74 73 72 71 72 72 72 73 74 74 73 66 69 73 74 74 72 71 71 70 70 69 69 68 68 68
71 71 71 71 72 72 72 72 72 72 71 72 71 71 72 73 73 73 64 67 71 74 75 73 72 71 71 70 70 69 68 68 68
71 71 71 71 71 72 72 72 71 71 71 71 72 71 71 72 72 73 73 65 68 71 74 74 73 73 72 71 70 69 68 68 68
72 71 71 72 72 71 71 71 70 70 70 70 72 71 72 71 71 72 72 72 65 67 72 73 73 73 73 72 71 70 69 68 68
71 71 71 72 71 71 70 71 70 69 70 71 72 71 71 72 72 71 71 71 72 69 68 71 73 73 73 74 72 71 69 69 68
72 71 72 72 71 70 70 70 69 70 70 69 70 70 70 71 70 71 70 71 70 72 68 66 67 69 72 73 74 72 71 69 68
71 72 71 72 70 70 69 69 68 68 69 67 66 69 70 70 70 71 69 69 69 70 69 71 70 65 69 71 73 73 72 70 69
70 71 70 70 70 71 70 69 66 66 64 64 67 67 67 68 69 70 66 67 67 68 68 69 69 70 66 68 71 72 73 72 70
70 69 69 69 69 68 68 66 65 64 62 64 61 60 66 65 65 66 65 65 66 66 66 67 67 67 69 68 67 70 72 73 72
68 69 68 67 66 66 67 66 64 63 61 62 63 56 58 60 63 63 62 63 63 65 64 64 65 66 66 64 64 64 67 70 72
66 66 65 65 64 63 64 65 64 63 61 57 58 60 58 55 53 59 63 59 61 59 60 61 62 60 59 60 60 61 63 67 70
61 62 62 62 62 63 63 63 62 62 62 60 58 58 55 54 52 52 59 58 59 60 61 62 59 59 62 63 60 59 62 66 68

GFSFLT1_sfc_temp_060.txt.gz
Temp
77 76 75 75 75 76 76 75 75 75 75 76 75 74 74 75 84 84 81 78 77 77 76 75 76 76 76 76 76 76 76 76 76
76 75 75 75 75 75 75 75 75 75 75 75 74 73 72 83 83 83 83 81 77 76 75 75 75 75 75 75 75 76 75 75 75
76 75 75 75 75 75 75 75 75 74 74 74 74 72 71 81 82 81 82 75 76 76 74 74 74 74 74 74 74 75 75 75 74
76 75 75 75 75 75 74 74 74 74 74 73 72 71 70 83 82 83 84 72 76 75 74 73 73 73 73 73 73 73 74 74 74
75 74 74 74 74 74 74 74 74 73 73 72 71 69 70 83 82 84 81 73 76 75 74 73 73 72 72 72 72 73 73 73 73
79 72 72 73 73 73 73 73 72 71 70 71 69 68 84 84 84 84 71 72 75 76 74 73 72 72 71 71 71 71 72 72 72
82 74 70 72 72 72 73 73 71 70 83 81 71 83 83 84 83 84 70 72 75 75 74 72 72 71 70 70 70 71 70 71 71
81 82 80 81 71 81 78 78 82 80 82 82 83 82 81 84 83 80 70 71 74 74 73 72 71 71 70 70 70 69 69 69 69
81 82 81 81 82 81 81 83 82 80 79 81 81 81 81 83 83 80 68 69 72 75 74 73 72 71 71 70 70 69 68 68 68
81 82 82 82 82 82 81 81 81 81 81 81 80 80 81 82 82 82 68 67 70 73 75 74 73 72 71 71 70 69 68 68 68
80 81 80 81 81 82 82 81 81 80 81 80 81 81 80 81 81 81 80 67 68 70 73 74 74 74 73 72 71 70 68 68 68
80 80 80 81 81 81 81 80 80 79 80 79 81 81 81 80 79 79 80 79 65 67 71 73 74 74 74 73 72 70 69 69 68
80 80 80 81 81 80 79 79 78 78 79 79 80 80 80 79 80 80 79 79 79 71 68 70 72 74 74 74 73 72 70 69 68
80 80 80 81 80 79 79 78 78 77 78 78 79 79 78 79 79 79 79 78 77 78 71 66 67 69 72 73 74 73 71 70 69
80 80 80 81 79 78 79 77 78 77 77 77 75 77 78 78 79 79 79 79 77 76 76 76 74 65 68 71 73 73 73 71 70
79 79 79 79 78 78 79 78 76 75 77 72 73 75 77 76 77 79 79 77 76 75 76 75 76 76 67 68 70 72 73 72 70
78 77 77 77 76 76 76 75 72 72 74 68 67 64 73 77 76 77 75 76 76 74 74 74 74 74 75 72 67 69 71 72 72
73 72 72 72 71 70 71 71 69 65 69 70 66 61 64 69 73 72 73 73 74 73 72 72 72 73 73 70 68 64 66 69 71
72 72 70 68 67 65 66 66 66 65 62 62 64 65 63 58 58 69 71 71 70 70 68 67 70 68 66 62 60 60 62 65 68
68 69 68 68 69 68 66 66 64 64 63 63 60 60 61 61 56 55 61 66 61 63 66 70 69 70 68 67 61 59 61 64 66

GFSFLT1_sfc_temp_063.txt.gz
Temp
77 76 75 75 75 76 76 75 75 75 75 76 75 75 75 73 84 84 80 78 77 76 76 75 75 75 75 75 76 76 76 76 76
76 75 75 75 75 75 75 75 75 75 75 75 74 74 73 83 82 82 81 77 76 76 75 75 74 74 74 74 75 76 76 75 75
76 75 75 75 75 75 75 75 75 75 75 75 73 73 72 82 82 81 79 75 76 76 75 74 74 74 74 74 74 74 74 75 75
76 75 75 75 75 75 74 74 74 74 74 73 72 71 71 80 81 83 80 73 76 75 74 74 73 73 73 73 73 73 74 74 74
75 74 74 75 74 74 74 74 74 73 73 72 71 71 71 82 82 82 77 74 75 75 74 74 73 73 72 72 72 72 73 73 72
78 71 72 73 73 73 74 73 72 71 71 71 71 69 82 83 82 82 72 73 75 75 74 73 72 72 71 71 71 72 72 72 72
81 74 71 72 73 72 73 73 72 70 82 77 71 78 83 83 81 80 72 72 74 75 74 72 72 71 71 71 71 71 70 70 70
81 81 78 78 71 78 75 75 78 82 81 81 82 82 81 82 82 78 72 72 74 75 74 72 72 71 71 70 70 70 69 69 69
82 83 82 82 81 82 82 83 83 81 81 82 82 82 81 82 82 80 70 71 72 74 74 73 72 71 71 71 70 69 69 69 68
82 83 83 83 83 83 82 82 82 82 82 82 81 81 82 82 82 81 69 70 71 72 75 75 73 72 72 71 70 70 68 68 68
81 82 81 82 82 83 82 82 82 81 82 81 82 82 81 81 81 81 79 69 69 71 73 74 75 74 73 72 71 70 69 68 68
82 82 82 82 83 82 82 82 81 80 81 80 81 82 82 81 81 80 79 77 66 69 72 73 74 75 74 74 73 71 70 69 69
82 81 81 82 82 81 80 80 79 79 79 79 81 81 81 81 81 80 80 78 79 70 70 71 73 74 75 75 74 73 71 70 69
81 81 81 82 81 80 80 79 79 77 78 77 79 80 79 80 80 80 79 79 78 76 70 67 68 69 72 74 75 74 72 71 70
82 81 81 82 79 78 78 77 77 75 74 75 76 77 77 78 79 79 80 79 78 77 75 73 70 65 69 71 73 74 73 71 70
81 80 79 78 77 77 78 76 73 72 75 71 72 73 76 77 77 77 77 77 77 75 74 74 74 73 67 69 70 72 73 73 71
79 78 77 76 74 76 75 74 71 71 72 66 67 62 69 74 75 75 75 75 75 74 74 74 73 72 72 70 67 69 71 72 72
75 73 71 70 69 69 69 68 66 64 65 66 62 60 62 67 70 70 72 72 72 73 72 72 72 71 69 68 66 63 64 67 69
73 73 71 69 67 65 65 66 65 64 62 63 63 64 61 57 57 68 69 70 70 71 69 68 68 67 65 63 61 60 61 64 66
70 70 69 68 68 69 68 67 66 65 63 63 62 62 62 62 57 56 59 66 66 67 66 67 68 68 66 64 59 58 60 62 64

GFSFLT1_sfc_temp_066.txt.gz
Temp
76 76 75 75 75 76 75 75 75 75 75 76 76 76 75 75 73 73 74 71 76 76 75 75 75 75 75 75 76 76 76 76 75
76 75 75 75 75 75 75 75 75 75 75 75 75 74 72 73 72 71 70 71 76 76 75 75 75 74 74 74 75 75 75 75 75
76 75 75 75 75 75 75 75 75 75 75 74 73 73 71 73 72 69 68 74 76 76 75 74 74 74 74 74 74 74 74 74 74
75 75 75 75 75 74 74 74 74 74 74 73 72 72 71 67 72 74 68 74 76 75 74 74 74 74 73 73 73 73 73 73 73
74 73 74 74 74 74 74 74 74 73 73 72 71 71 70 66 72 69 67 74 76 75 74 74 73 73 72 72 72 72 72 72 72
72 71 72 73 73 73 73 73 72 71 71 71 71 70 67 69 70 67 72 74 75 75 74 73 73 72 72 72 72 71 71 71 71
73 68 70 72 72 72 73 73 72 70 67 65 69 65 68 69 70 66 72 74 75 75 74 73 72 72 71 71 71 70 70 70 70
69 65 66 66 68 67 69 68 67 66 69 68 67 69 69 68 68 69 72 74 74 75 74 73 72 71 71 71 70 70 69 69 69
69 68 68 67 67 67 67 68 69 71 71 70 69 69 68 68 68 66 70 72 73 74 74 73 72 72 71 71 70 69 69 69 68
70 70 70 69 69 69 69 70 70 70 71 71 71 70 70 69 69 67 67 70 72 74 75 75 73 73 72 71 70 69 68 68 68
71 70 70 69 70 70 70 69 70 70 70 71 71 70 70 70 70 69 66 68 70 72 74 74 75 74 73 73 73 72 70 69 68
71 70 69 70 71 72 70 70 70 69 71 69 71 71 70 70 70 70 69 67 66 69 73 74 75 75 75 75 73 72 71 70 69
71 70 70 71 71 70 69 68 68 67 67 67 69 69 71 71 70 71 70 69 70 67 70 72 73 74 75 75 75 74 72 70 70
72 71 71 72 70 69 70 69 68 66 67 71 72 72 72 69 72 70 70 70 72 70 67 67 68 70 72 74 75 75 73 71 70
72 71 72 72 73 73 72 71 71 70 69 71 71 70 68 68 68 69 71 69 70 70 68 63 63 65 69 71 73 74 74 72 71
72 71 74 74 72 72 72 71 69 68 69 66 62 64 66 67 67 68 67 67 67 67 65 64 63 64 67 68 70 72 73 73 72
72 71 71 72 70 71 70 69 67 67 67 63 61 59 61 64 66 65 66 64 65 65 66 64 64 62 62 63 67 68 69 71 71
71 69 68 67 67 66 66 65 64 63 64 65 61 57 55 57 61 63 63 63 62 61 62 62 63 64 62 61 61 62 63 66 68
67 67 67 67 65 64 63 63 63 63 61 62 62 61 61 57 55 59 60 61 62 59 59 59 61 62 60 57 58 59 61 64 66
64 64 62 61 61 61 61 60 60 59 58 59 59 58 59 59 56 54 54 58 60 59 58 59 57 57 54 52 55 58 61 63 64

GFSFLT1_sfc_temp_069.txt.gz
Temp
76 76 75 75 76 75 75 75 75 75 75 76 76 76 75 72 69 68 71 69 76 76 76 75 75 75 75 75 75 76 76 76 76
76 75 75 75 75 75 75 75 75 75 75 75 75 74 72 70 67 67 67 70 76 76 75 75 75 75 74 74 74 75 75 75 75
75 75 75 75 75 75 75 75 75 74 74 74 74 73 71 71 67 66 67 74 76 75 75 74 74 74 74 74 74 74 74 74 74
75 75 75 75 75 74 74 74 74 74 73 73 73 71 70 65 67 70 66 74 76 75 74 74 74 73 73 73 73 73 73 73 73
74 73 73 74 74 74 74 74 73 73 73 73 72 71 69 64 67 66 66 74 76 75 74 74 73 73 72 72 72 72 72 72 72
70 70 71 72 73 73 73 73 72 71 71 71 71 70 65 63 65 65 72 74 75 75 74 73 73 72 72 72 71 71 71 71 71
71 68 69 71 72 72 73 73 72 70 65 64 68 64 64 64 65 65 73 75 75 75 74 73 72 72 71 71 71 70 70 70 70
65 65 66 65 67 66 68 67 66 63 63 64 63 65 65 65 65 68 72 75 75 75 75 73 72 72 71 71 70 70 69 69 69
63 63 63 63 65 64 64 63 64 65 66 67 66 66 65 65 65 64 70 73 75 75 74 73 72 72 71 71 70 69 69 69 68
65 64 64 63 64 63 63 64 65 65 67 67 67 67 67 66 66 63 66 70 73 75 75 75 73 73 72 71 70 69 69 68 68
67 66 66 65 65 66 66 66 66 66 66 67 68 67 67 67 67 66 64 67 70 72 75 75 76 75 73 72 72 71 70 69 69
69 67 66 67 67 68 66 66 66 66 67 66 68 68 67 67 68 67 66 66 66 69 74 74 75 75 75 74 74 73 71 70 69
69 68 67 67 67 67 66 66 65 64 64 64 66 67 68 71 71 68 67 67 68 67 70 72 74 74 75 75 75 73 72 71 70
70 68 68 69 67 66 67 66 65 64 65 68 70 70 70 71 72 68 68 66 69 69 67 67 68 70 72 74 75 75 73 71 70
70 69 68 69 70 71 71 70 69 69 69 70 69 68 68 67 65 66 68 66 66 67 66 63 63 65 69 71 73 73 74 73 71
70 69 69 72 72 72 71 70 68 67 67 65 61 62 64 64 64 66 64 65 66 64 63 62 61 62 67 68 70 71 72 72 72
71 69 69 70 70 70 70 68 67 67 67 64 62 58 60 64 64 62 63 64 63 63 63 61 61 58 59 61 64 65 67 68 69
70 69 69 68 67 66 66 65 65 63 62 64 61 56 54 56 62 62 61 63 62 61 60 60 60 59 60 59 58 61 63 66 68
66 65 65 65 65 63 62 62 61 60 60 59 61 60 59 56 54 57 58 59 59 57 57 58 58 56 53 55 58 59 62 64 66
63 62 61 61 60 60 59 59 58 58 57 56 55 56 56 57 54 51 53 56 56 56 56 55 54 54 52 53 55 58 61 63 64

GFSFLT1_sfc_temp_072.txt.gz
Temp
77 77 76 76 75 75 75 75 75 75 75 76 76 75 74 71 66 66 70 68 76 76 75 75 75 75 75 75 75 76 76 76 76
76 75 75 75 75 75 75 75 75 75 75 75 75 74 71 66 64 65 66 69 76 76 75 75 75 74 74 74 74 75 75 75 75
75 75 75 75 75 75 75 75 75 74 74 74 74 72 71 68 65 65 65 73 76 75 75 74 74 74 74 74 74 73 73 74 74
75 75 75 75 75 74 74 74 74 74 74 73 73 71 69 63 65 68 65 74 75 75 74 74 74 73 73 73 73 73 72 72 73
74 73 74 74 74 74 73 74 74 73 73 73 72 71 68 62 64 64 64 74 75 74 74 74 73 73 72 72 72 72 72 72 72
69 69 71 72 73 73 73 73 73 71 70 71 71 69 63 61 63 63 70 74 75 75 73 73 73 72 72 71 71 71 71 71 71
69 67 69 71 71 72 73 73 72 69 63 63 66 62 62 62 63 63 72 75 76 75 74 73 72 72 71 71 70 70 70 70 70
65 64 65 65 66 64 67 65 64 62 61 62 61 62 62 61 62 67 71 75 76 75 75 73 72 71 71 71 70 70 69 69 69
63 63 63 63 64 62 62 62 62 62 63 62 63 63 63 63 63 63 69 73 76 76 74 73 72 72 71 71 70 69 69 68 68
62 62 62 62 62 62 62 62 62 62 63 64 65 65 64 64 64 62 65 69 73 75 76 75 74 73 72 71 70 69 69 69 68
63 62 62 61 62 62 62 62 62 63 63 64 65 65 65 65 65 64 64 67 70 73 75 75 76 75 74 72 71 70 70 69 69
66 64 63 63 63 63 62 63 63 63 65 64 65 65 65 65 66 65 64 65 65 69 74 75 75 75 75 74 73 72 71 70 69
67 66 65 66 65 65 64 64 63 62 62 62 65 65 67 70 69 69 69 65 66 66 69 72 74 74 75 75 75 74 71 71 70
68 66 66 67 66 65 65 64 64 63 64 67 69 69 69 70 71 70 69 67 65 65 66 67 68 70 72 74 74 74 73 71 70
68 67 67 67 66 66 68 69 68 68 68 69 68 69 66 64 64 65 66 65 65 65 65 62 62 64 69 71 72 73 73 72 71
68 67 67 67 69 70 70 69 68 67 67 65 64 61 62 62 63 62 62 63 65 63 64 61 60 60 65 67 68 70 71 70 70
69 67 67 67 69 70 70 68 66 64 65 63 61 56 58 60 60 60 61 60 63 64 63 62 59 57 57 59 63 66 67 68 69
70 69 68 68 67 67 66 66 65 63 63 63 59 56 52 54 59 60 60 60 60 62 61 60 58 57 56 57 58 62 64 66 67
66 67 67 66 65 63 63 62 61 59 58 59 59 58 57 55 54 56 57 58 58 57 58 56 55 54 53 56 58 60 63 65 66
62 62 61 61 62 61 60 57 57 57 57 56 55 54 54 55 53 54 53 54 55 55 55 55 53 54 52 52 55 59 61 63 64

GFSFLT1_sfc_temp_075.txt.gz
Temp
79 77 76 75 75 75 75 75 75 75 76 76 76 75 73 69 64 65 69 67 76 76 75 75 75 75 75 75 75 76 76 75 75
77 76 75 75 75 75 75 75 75 75 75 76 75 73 71 65 63 64 65 68 76 76 75 75 75 74 74 74 74 74 75 75 74
76 75 75 75 75 75 75 75 75 75 75 75 73 72 70 66 63 64 65 73 75 75 74 74 74 74 74 73 73 73 73 73 74
75 75 75 75 75 74 74 74 74 74 74 74 72 70 68 62 63 66 64 73 75 75 74 74 73 73 73 73 73 72 72 72 72
74 73 74 74 74 74 73 74 74 73 73 73 72 69 68 61 63 63 64 73 75 74 73 73 73 73 72 72 72 72 71 72 72
69 69 71 72 73 73 73 73 73 71 70 71 70 68 61 60 61 61 68 74 75 74 73 73 73 72 72 71 71 71 70 70 70
67 66 69 71 71 72 73 73 72 69 62 61 65 61 60 60 61 62 69 74 76 75 74 72 72 72 71 71 70 70 70 70 69
64 63 64 64 66 64 66 65 63 61 60 61 60 61 60 59 61 65 70 74 76 76 75 73 72 72 71 71 70 69 69 69 68
63 63 63 62 63 61 61 60 61 61 61 60 61 61 61 60 61 62 67 72 75 76 75 74 72 72 71 71 70 69 69 68 68
62 62 61 61 61 61 60 61 61 61 61 62 62 63 62 62 62 61 64 68 72 75 76 75 74 73 72 72 71 70 69 69 68
62 62 61 61 61 62 61 61 61 61 61 63 63 63 63 63 63 63 63 66 69 72 75 76 76 75 74 73 72 71 70 69 69
63 62 61 61 61 61 61 61 61 61 63 62 63 64 63 64 64 64 63 63 65 68 73 75 75 75 76 75 74 72 71 70 70
64 63 62 63 62 61 61 61 61 61 61 61 64 64 64 65 67 69 68 67 67 67 68 71 74 75 75 75 75 75 73 71 70
66 65 64 64 63 62 63 62 63 62 62 65 65 68 68 69 69 67 67 67 67 65 65 66 68 70 73 74 74 74 73 72 71
67 66 65 65 64 63 63 64 64 65 67 68 68 67 64 63 62 63 64 62 63 63 63 63 62 65 69 71 72 73 72 71 71
67 66 65 65 64 65 66 68 67 66 66 64 64 61 61 61 62 61 60 61 62 62 61 60 62 62 66 68 69 70 70 70 69
69 66 65 65 64 67 68 67 65 65 65 62 58 55 58 59 59 58 59 59 59 60 60 60 62 60 59 59 64 66 68 69 69
69 68 66 65 66 66 67 66 65 63 61 63 62 56 52 54 59 59 59 58 57 57 58 58 58 57 55 57 58 62 65 67 68
69 67 66 66 65 65 64 63 63 60 58 57 58 57 58 56 53 55 56 56 57 56 56 56 57 55 53 56 58 61 63 65 67
62 62 62 61 61 61 61 60 59 57 56 55 54 53 52 54 54 51 52 54 54 54 53 52 52 55 53 54 56 60 62 64 65

GFSFLT1_sfc_temp_078.txt.gz
Temp
77 76 75 75 75 76 76 75 75 75 76 76 75 74 72 68 64 64 68 67 76 76 75 75 75 75 75 75 75 76 77 76 75
77 75 75 75 75 75 75 75 75 75 75 76 75 73 70 63 62 63 65 68 76 76 75 75 75 75 74 74 74 74 74 75 75
76 75 75 75 75 75 75 75 75 75 75 74 74 71 69 65 62 63 64 73 75 75 75 74 74 74 74 73 73 73 73 73 73
75 75 75 75 75 75 74 74 74 74 74 73 72 70 68 62 62 66 63 72 75 75 74 74 74 73 73 73 72 72 72 73 73
74 73 74 74 74 74 74 74 74 73 73 73 71 69 67 61 62 62 63 72 75 74 74 73 73 73 72 72 72 72 72 72 72
69 68 71 72 73 73 73 73 73 71 70 71 70 67 60 59 60 60 68 72 75 74 73 73 73 72 72 71 71 71 71 70 70
67 66 69 71 71 71 72 72 72 67 61 60 64 60 59 59 60 60 69 73 76 75 74 72 72 72 71 71 70 70 70 70 69
63 63 64 64 66 63 65 63 61 60 59 59 58 59 59 58 59 63 69 73 76 76 75 73 72 72 71 71 70 70 69 69 68
62 62 62 62 62 61 60 60 60 60 60 59 59 60 60 60 60 61 66 70 75 76 76 75 73 72 72 71 71 69 69 69 68
62 62 61 61 60 60 59 60 60 60 61 61 61 61 61 61 61 61 64 67 71 75 76 76 74 73 73 72 71 70 70 69 69
62 62 61 60 60 61 60 60 60 60 60 61 62 62 62 62 62 63 63 66 68 72 75 76 76 76 75 75 73 72 71 70 70
63 62 61 61 60 61 60 60 59 59 61 61 62 63 63 63 64 63 63 63 65 68 73 75 75 76 76 76 74 73 71 71 71
62 62 61 61 61 60 59 59 59 59 60 60 62 63 63 64 64 66 66 64 65 67 68 71 74 75 76 75 75 75 73 72 71
64 64 63 63 61 60 61 60 60 60 61 62 63 63 65 66 66 64 64 63 63 64 66 66 66 69 73 74 74 74 73 71 71
66 65 64 63 62 61 61 61 61 62 64 66 66 66 63 62 61 61 63 61 62 62 62 61 63 65 70 72 72 72 72 70 70
69 66 64 63 63 64 63 62 64 65 66 64 63 60 61 61 61 59 59 60 61 60 60 59 59 62 67 68 69 70 70 70 69
68 68 66 64 64 63 64 65 65 65 65 63 58 54 58 57 58 57 58 57 57 58 59 58 58 57 58 61 65 68 69 69 69
69 67 64 63 64 64 64 65 65 63 62 62 59 54 51 52 57 57 56 56 56 56 57 59 57 55 55 57 60 63 66 68 68
64 64 64 64 65 64 63 63 63 62 61 58 58 58 58 54 51 55 55 55 55 54 54 54 54 54 54 57 59 61 64 66 67
62 62 62 62 62 61 61 60 59 58 58 56 54 52 51 54 53 49 50 52 52 52 51 51 50 52 52 52 57 61 64 65 65

GFSFLT1_sfc_temp_081.txt.gz
Temp
78 77 76 76 76 76 76 76 76 76 76 76 75 74 71 72 76 77 76 78 76 76 76 75 75 75 75 75 75 75 75 76 76
77 76 75 75 76 76 76 76 76 75 76 75 74 73 70 76 76 76 77 78 76 76 75 75 75 75 74 74 74 74 74 75 74
76 75 75 75 76 76 76 76 75 75 75 75 73 71 70 74 75 75 77 75 76 75 75 75 74 74 74 74 74 73 74 74 74
75 75 75 75 75 75 75 75 75 75 74 73 72 70 68 76 76 75 77 72 76 75 74 74 74 74 73 73 73 73 73 73 73
74 73 74 74 74 74 74 74 74 74 73 72 71 69 68 76 75 76 77 72 75 74 74 74 74 73 72 72 72 72 72 72 72
75 71 71 72 73 73 73 73 73 71 70 70 69 67 76 76 76 76 69 72 75 75 73 73 73 73 72 72 71 71 71 71 71
74 70 69 71 71 72 73 73 71 70 75 75 69 76 75 76 75 75 69 73 76 76 74 73 72 72 72 71 71 71 70 70 70
73 73 73 73 69 74 73 73 74 73 74 74 75 74 74 76 75 73 69 72 75 76 76 73 73 72 72 71 71 70 70 69 69
70 71 71 71 72 71 72 74 73 72 73 74 75 75 75 77 75 74 67 70 74 76 77 76 74 73 72 72 71 70 70 69 69
70 70 70 70 71 71 71 72 73 73 73 74 74 75 75 76 76 76 65 67 70 74 76 76 75 74 73 73 72 71 70 70 69
70 70 70 70 70 71 71 72 72 73 73 73 73 74 75 76 75 76 75 66 68 71 74 76 76 76 75 74 74 72 72 71 70
71 71 70 71 71 70 70 71 70 70 71 72 73 74 75 74 75 76 75 73 65 67 71 74 76 76 76 76 74 74 72 71 71
71 71 71 71 70 70 70 70 70 70 70 73 74 74 74 76 76 76 75 75 75 70 68 70 73 75 75 76 75 74 73 72 72
72 72 71 71 70 69 70 69 70 70 70 71 73 74 74 75 75 76 75 74 74 75 69 66 67 69 72 74 75 73 73 71 71
71 71 72 71 70 70 68 69 69 71 71 70 72 74 74 74 75 75 73 74 72 73 73 73 72 64 67 72 73 73 72 70 70
72 72 70 69 69 70 70 69 69 69 69 67 72 72 73 73 73 72 72 71 71 70 71 72 73 73 67 69 70 72 71 70 69
70 69 68 68 70 69 69 69 68 67 67 68 63 65 70 71 71 71 70 70 70 69 68 70 70 70 70 66 67 69 70 70 69
67 67 68 66 66 66 68 68 67 65 64 66 65 61 62 63 69 68 68 68 69 68 67 67 66 65 63 61 63 64 67 68 69
65 66 66 66 64 64 64 66 66 66 67 65 65 66 65 62 60 65 66 66 66 66 66 65 63 61 62 60 60 62 65 67 68
64 65 64 63 62 62 62 65 62 63 63 64 62 62 61 60 57 57 60 64 64 63 62 64 62 60 61 63 61 61 65 66 66

GFSFLT1_sfc_temp_084.txt.gz
Temp
78 78 77 76 76 77 76 76 76 76 76 75 75 73 73 74 84 83 81 81 76 76 76 75 75 75 75 75 75 75 75 75 75
77 76 76 76 76 76 76 76 76 76 75 75 74 72 71 83 83 82 82 80 76 76 75 75 75 75 74 74 74 74 74 74 74
77 76 75 76 76 76 76 76 75 75 75 74 73 71 72 80 82 81 82 76 76 75 75 75 74 74 74 74 74 74 74 74 74
76 75 75 75 76 75 75 75 75 75 74 73 72 70 70 84 82 82 83 73 76 75 74 74 74 74 73 73 73 73 73 73 73
75 74 75 75 75 75 74 75 75 74 73 72 71 69 69 83 81 83 81 72 75 75 74 74 74 73 73 72 72 72 72 72 72
77 73 73 73 73 74 74 74 73 71 71 71 69 68 85 84 85 85 71 72 75 75 73 73 73 73 72 72 71 71 71 71 71
81 73 70 72 72 72 73 73 71 70 82 79 70 84 84 85 84 84 71 73 75 76 74 73 73 72 72 71 71 71 71 70 70
79 79 77 78 71 80 77 76 81 82 83 82 84 83 83 85 84 80 70 72 75 76 76 74 73 73 72 71 71 70 70 70 69
80 80 80 80 80 81 81 82 82 81 81 83 83 82 82 84 84 81 69 70 73 76 76 76 74 73 73 72 71 70 70 70 69
79 79 79 80 80 80 80 81 82 82 82 82 82 82 83 83 83 84 67 68 70 73 76 76 76 75 73 73 72 71 71 70 70
77 77 77 79 80 81 81 81 80 81 81 82 82 82 82 83 82 84 82 67 68 70 73 75 76 77 75 74 74 72 72 71 71
78 80 79 79 80 80 79 80 80 79 80 80 81 82 83 83 83 83 83 81 65 67 71 73 75 76 76 76 75 73 73 72 72
78 80 80 81 80 79 78 78 77 78 79 80 81 81 81 82 83 83 84 83 82 73 68 70 72 74 75 76 75 74 73 72 72
79 79 80 80 79 78 78 77 78 77 78 78 80 81 81 82 83 83 83 82 80 81 73 67 67 68 71 73 75 73 73 72 71
77 79 80 79 77 77 77 77 78 78 79 77 78 80 81 82 82 82 82 81 80 80 79 79 77 65 67 70 73 73 72 71 70
77 78 79 78 77 77 78 77 76 75 77 74 71 78 80 80 81 81 81 80 79 78 78 78 79 78 67 70 71 72 71 71 70
75 75 77 77 74 77 76 75 74 76 76 71 72 69 75 78 78 80 78 78 78 77 76 76 76 76 78 70 68 70 71 71 70
71 72 69 68 68 71 73 75 74 70 70 70 72 67 67 72 77 75 76 75 76 76 75 74 73 73 72 68 66 65 67 69 70
67 67 66 65 65 64 64 65 65 69 68 67 71 74 73 67 66 72 73 74 73 73 75 74 71 70 70 62 61 62 65 68 69
65 64 64 64 64 63 62 63 62 62 61 62 63 70 69 67 64 63 66 70 72 72 71 71 72 69 69 70 63 62 65 67 67

GFSFLT1_sfc_temp_090.txt.gz
Temp
79 78 78 78 77 77 76 76 76 75 75 75 76 75 75 73 73 71 73 70 76 76 76 75 75 75 75 75 75 75 75 75 75
78 78 79 79 77 76 76 76 75 75 75 75 75 74 73 72 72 71 70 71 76 76 75 75 75 75 75 75 75 75 75 74 74
78 78 79 78 77 76 76 76 75 75 75 75 74 73 72 75 72 70 68 74 76 76 75 75 75 74 74 74 74 74 74 74 74
78 78 77 76 76 76 76 75 75 75 74 74 73 72 71 66 72 74 69 74 76 75 75 74 74 74 73 73 73 73 73 73 73
77 75 76 76 75 75 74 75 75 74 73 73 72 71 70 67 72 70 69 75 76 75 74 74 74 73 73 72 72 72 72 72 72
75 73 73 73 74 74 74 74 73 72 71 71 70 69 67 69 70 68 72 74 76 75 74 74 73 73 72 72 72 72 71 71 71
74 70 70 73 72 72 74 73 72 70 67 65 68 64 67 70 70 67 72 74 76 76 74 73 73 73 72 72 72 71 71 71 70
70 66 70 69 67 67 69 68 67 66 68 67 66 68 69 68 69 69 72 74 76 76 76 74 73 73 73 72 72 71 71 70 70
70 69 66 66 66 66 66 65 67 68 71 70 71 71 71 70 69 66 70 73 75 76 76 76 75 73 73 73 72 71 71 71 70
69 69 69 69 69 69 69 69 70 70 71 73 72 71 71 72 71 66 67 70 72 74 76 76 76 76 74 74 73 72 71 71 71
69 71 71 70 71 70 71 71 69 70 71 72 72 72 72 72 71 69 66 68 70 72 74 75 76 76 76 76 73 72 72 72 71
70 69 69 69 70 71 70 70 71 70 72 70 71 72 71 72 73 72 69 67 66 69 74 74 75 75 76 76 76 74 73 73 72
70 68 68 69 70 69 68 69 67 67 69 68 69 70 71 72 72 76 72 70 73 67 70 72 73 74 74 75 76 75 73 73 72
71 69 69 70 69 69 69 68 68 67 67 67 69 69 70 71 75 72 73 72 71 69 68 67 68 70 72 73 74 74 74 73 72
71 70 70 70 69 69 69 68 68 68 67 72 71 69 69 70 69 71 76 74 70 69 68 65 65 65 69 71 72 73 74 72 71
71 71 70 69 69 69 70 69 68 67 67 64 65 66 71 72 70 70 69 69 69 68 67 66 65 65 67 69 71 73 73 72 71
70 69 69 70 69 68 70 68 66 67 67 63 63 59 62 66 69 68 69 66 66 67 67 66 65 63 61 62 67 70 72 72 71
69 69 67 67 65 65 65 65 64 64 64 65 62 57 56 59 67 64 65 65 63 64 65 65 65 63 60 61 61 65 67 71 71
67 67 67 65 64 63 62 63 62 62 61 62 64 61 60 59 57 61 62 63 64 61 62 62 62 62 59 59 61 62 64 68 70
65 65 65 64 63 63 62 62 62 62 60 60 59 58 58 58 57 55 57 60 61 63 61 60 59 61 59 57 58 61 64 68 69

GFSFLT1_sfc_temp_093.txt.gz
Temp
79 79 77 77 77 77 77 76 75 75 75 76 76 76 75 72 68 67 71 69 76 76 75 75 75 75 75 75 75 75 75 75 75
78 77 77 77 77 77 76 76 75 75 75 76 76 74 73 70 67 67 67 70 76 76 76 75 75 75 75 75 75 74 74 74 74
78 78 78 79 78 76 76 75 75 75 75 75 74 73 71 71 68 67 66 74 76 76 75 75 75 74 74 74 74 74 74 74 74
78 78 79 77 76 76 75 75 75 75 75 74 73 72 71 66 68 71 67 74 76 75 75 74 74 74 73 73 73 73 73 73 73
78 75 76 77 75 75 75 75 74 74 73 73 72 71 70 66 68 68 67 75 76 75 74 74 74 73 73 72 72 72 72 72 72
75 73 73 74 73 74 74 74 73 72 71 71 71 69 65 64 66 66 72 75 76 75 74 74 74 73 72 72 72 72 72 71 71
76 71 71 73 72 72 74 73 72 69 64 65 68 65 64 64 65 65 72 75 76 75 74 73 73 73 72 72 72 72 71 71 71
71 70 72 71 67 67 68 67 65 63 63 64 63 65 64 64 65 68 72 75 76 76 75 74 73 73 72 72 72 71 71 71 70
68 68 69 70 65 64 64 63 63 64 65 65 65 65 65 66 66 65 70 73 76 76 76 75 74 73 73 73 73 72 71 71 70
69 68 66 65 64 63 63 63 64 65 66 67 67 67 68 68 66 64 66 70 73 75 76 76 76 75 75 74 73 72 72 71 71
69 68 67 66 66 66 66 65 65 66 67 69 69 69 68 69 67 65 65 68 71 73 75 76 76 76 76 76 75 73 72 72 71
69 68 67 68 68 67 67 67 67 66 68 67 69 70 69 69 69 68 65 66 66 69 74 75 75 75 76 76 76 74 73 73 72
67 67 68 69 68 67 66 65 65 64 65 66 68 68 69 69 69 70 69 67 71 66 70 72 74 74 75 76 76 75 73 73 72
69 66 67 68 67 66 66 64 65 64 65 67 68 67 68 68 72 69 71 68 68 66 67 67 68 70 72 74 74 74 74 73 72
70 67 67 67 66 65 66 66 65 65 66 70 69 67 67 66 68 69 71 72 70 66 66 63 64 65 69 71 72 73 74 73 72
69 68 68 68 68 68 68 67 66 64 66 64 64 64 67 66 70 67 68 70 68 65 65 63 63 63 67 69 70 73 73 73 71
70 68 68 67 67 68 68 66 64 65 65 63 61 58 62 64 67 69 69 65 65 65 65 63 62 60 60 62 66 70 72 72 71
70 66 67 65 65 64 64 65 64 62 63 63 62 56 56 59 62 64 64 63 62 61 62 62 62 60 58 59 60 64 67 71 71
65 65 65 65 64 63 63 63 62 62 60 62 63 61 60 57 56 60 62 61 61 60 59 59 60 59 57 58 60 62 64 68 70
67 66 64 63 63 63 63 62 61 61 60 60 59 58 58 57 55 55 56 61 61 58 59 58 58 57 56 55 58 61 64 67 69

GFSFLT1_sfc_temp_096.txt.gz
Temp
79 78 77 77 76 77 77 77 75 75 75 76 76 75 74 70 66 66 70 68 76 76 75 75 75 75 75 75 75 75 75 75 75
78 77 76 76 76 77 76 75 75 75 75 76 75 74 72 67 65 65 66 69 76 76 75 75 75 75 75 74 74 74 74 74 74
77 76 76 76 76 76 76 75 75 75 75 75 74 72 71 69 65 65 65 73 76 76 75 74 74 74 74 74 74 74 74 74 74
77 76 77 78 78 76 75 75 75 75 75 74 73 71 69 64 65 68 66 74 76 75 75 74 74 74 73 73 73 73 73 73 73
76 75 76 76 76 75 74 74 74 74 74 73 72 70 69 64 66 66 66 75 76 75 74 74 74 73 73 73 72 72 72 72 72
75 72 73 75 74 74 74 74 73 72 71 71 71 69 63 63 65 65 72 75 76 75 74 74 74 73 72 72 72 72 72 71 71
75 71 71 74 73 73 74 73 72 69 63 63 68 63 63 63 64 64 72 75 76 75 74 73 73 73 72 72 72 72 71 71 71
70 71 73 71 68 67 68 67 64 62 62 62 62 63 63 63 64 67 71 75 76 75 74 73 73 73 72 72 72 71 71 71 70
69 70 70 70 68 65 64 63 62 62 62 62 63 63 64 63 64 64 69 73 76 76 76 74 74 73 73 73 72 72 71 71 70
67 66 68 70 68 65 62 62 61 61 62 64 64 64 64 64 64 63 66 70 73 76 76 76 75 75 74 74 73 72 72 71 71
66 66 66 66 67 66 63 61 61 62 63 64 65 66 66 66 65 65 64 67 71 73 75 76 76 76 76 76 75 73 73 72 72
67 68 67 68 68 66 62 62 63 63 64 64 65 66 65 66 67 66 64 65 66 69 74 75 75 75 76 76 76 75 73 73 72
68 67 68 69 68 66 64 63 62 62 62 63 64 65 67 67 67 68 67 66 68 66 70 72 74 74 75 76 76 75 74 73 72
69 67 67 68 65 65 66 62 63 61 62 64 64 64 65 66 70 68 67 67 66 65 66 66 68 70 72 74 74 75 74 73 72
69 68 68 68 66 66 65 64 63 63 63 67 67 65 66 66 66 67 70 67 66 65 65 63 63 65 68 71 72 73 73 73 72
68 69 68 67 68 68 68 64 63 63 64 62 62 62 65 66 66 68 67 68 66 64 63 61 61 62 67 68 69 72 73 73 72
68 68 68 68 67 66 66 66 62 63 62 60 59 58 61 63 66 64 66 67 66 63 63 61 60 60 59 61 65 68 72 72 71
68 67 67 65 66 65 64 64 63 62 61 63 61 55 56 59 61 61 63 63 63 61 62 61 60 59 57 59 59 64 67 71 71
66 67 67 66 66 65 65 65 64 62 60 60 61 61 59 55 55 59 59 61 62 60 59 59 58 57 56 58 60 62 64 68 70
65 65 63 62 61 62 62 61 61 62 61 60 59 58 58 58 56 53 56 59 60 59 59 59 59 57 55 55 58 61 64 67 69

GFSFLT1_sfc_temp_099.txt.gz
Temp
79 78 76 76 76 77 77 77 75 75 76 76 76 75 73 69 64 65 69 67 76 76 75 75 75 75 75 75 75 75 74 75 74
78 76 76 76 76 77 77 76 75 75 75 76 75 74 71 65 63 64 65 68 76 76 75 75 75 75 75 74 74 74 74 74 74
77 76 76 76 76 76 76 75 75 75 75 75 74 72 70 67 64 64 64 73 76 75 75 74 74 74 74 74 74 74 74 74 73
77 75 76 76 76 76 75 75 75 75 75 74 72 71 69 63 64 67 65 74 76 75 74 74 74 74 74 73 73 73 73 73 73
75 74 75 76 75 75 74 74 74 74 74 73 71 70 68 63 64 64 64 75 76 75 74 74 74 73 73 72 72 72 72 72 72
72 73 72 74 75 74 74 74 73 72 71 72 70 67 63 62 63 63 70 75 76 75 74 74 73 73 72 72 72 72 72 71 71
75 70 71 73 73 73 74 73 72 69 62 63 68 61 61 61 63 63 71 75 76 75 74 73 73 73 72 72 72 72 71 71 71
72 72 72 71 69 70 70 69 65 62 61 60 60 61 60 60 62 66 70 75 76 75 74 73 73 73 72 72 72 71 71 71 70
67 70 70 70 68 67 66 64 62 61 60 60 60 61 61 60 61 63 68 72 76 76 75 74 73 73 73 73 72 72 71 71 70
66 67 66 69 67 67 64 63 61 60 60 61 61 61 61 61 62 61 65 69 73 76 76 76 75 74 74 73 73 72 72 71 71
66 66 65 66 68 66 65 64 62 59 59 61 61 62 63 63 63 62 63 67 70 73 75 76 76 76 76 75 75 73 73 72 72
67 65 65 65 66 65 64 63 63 60 60 60 62 63 63 63 64 63 63 64 66 69 74 75 75 76 76 76 76 75 73 73 72
66 66 65 66 65 66 64 62 62 60 59 60 61 63 64 64 65 65 65 64 67 66 70 72 74 75 75 75 76 75 74 73 72
67 66 67 68 66 65 65 63 62 60 60 61 62 62 63 64 67 65 66 66 66 64 66 67 68 70 72 74 74 74 74 72 72
67 68 68 67 66 65 64 64 62 61 63 65 65 62 63 64 64 66 68 66 65 64 64 63 63 65 69 71 72 72 73 73 72
68 68 67 67 66 66 65 65 62 62 62 61 61 61 63 63 64 66 66 65 65 64 64 63 61 63 67 68 69 70 73 73 72
66 66 66 65 65 66 66 65 62 64 62 60 58 57 60 62 64 64 64 64 64 63 63 61 60 59 59 61 66 68 71 72 72
65 65 65 64 65 64 64 64 65 63 60 61 59 54 55 58 60 60 61 63 62 62 62 61 60 59 58 60 61 64 66 71 72
65 65 65 64 64 63 63 63 64 63 60 58 60 60 59 56 55 57 58 60 60 60 60 59 59 58 57 58 59 62 64 68 71
64 63 63 63 62 63 62 62 62 62 60 60 58 57 57 57 55 53 54 57 58 58 59 59 59 59 58 58 59 62 64 67 69

GFSFLT1_sfc_temp_105.txt.gz
Temp
79 79 77 76 76 76 77 76 76 76 76 76 76 75 72 70 76 77 76 78 77 76 76 75 75 75 75 75 75 75 75 75 75
79 78 76 76 76 77 76 76 76 75 75 76 76 74 70 76 76 76 77 78 76 76 76 75 75 75 75 75 75 75 75 74 74
78 76 76 76 77 77 76 76 76 75 75 76 74 72 70 73 75 75 76 76 76 76 75 75 75 75 75 74 74 74 74 74 74
77 76 76 76 76 76 76 75 75 75 75 75 73 70 69 76 76 75 77 74 76 75 75 75 75 74 74 74 74 73 73 73 73
75 74 74 75 75 75 75 75 75 75 74 73 71 70 68 76 74 76 77 74 76 75 74 74 74 74 73 73 73 73 73 73 72
78 74 72 74 74 74 74 74 74 73 71 71 70 68 76 76 76 76 70 74 76 75 74 74 74 74 73 73 73 72 72 72 72
78 73 70 72 73 73 74 74 73 71 77 76 70 76 75 75 75 75 70 73 76 76 74 74 74 73 73 73 72 72 72 72 71
77 77 77 78 71 74 75 74 75 72 75 74 75 75 74 75 74 73 69 73 76 76 75 74 74 73 73 73 72 72 72 72 71
73 76 76 77 76 72 76 75 74 69 73 74 74 74 74 74 74 73 67 71 75 76 76 75 74 74 73 73 73 72 72 72 71
71 70 71 74 74 75 74 72 71 73 72 72 72 73 74 74 74 74 64 67 71 75 76 76 75 74 74 74 73 73 72 72 72
70 71 69 70 69 71 71 73 72 71 72 71 71 72 73 74 74 74 74 65 68 72 74 76 76 76 75 75 74 73 73 73 72
70 69 70 71 71 69 67 70 68 71 71 70 71 71 73 72 73 74 73 73 65 68 73 74 76 76 76 76 76 75 73 73 72
71 70 70 71 71 71 69 65 65 65 70 69 68 71 71 72 73 73 73 73 73 69 69 71 74 75 76 76 76 76 74 73 73
71 70 70 71 70 70 69 66 65 63 62 66 68 71 71 72 73 73 73 73 72 73 69 66 68 70 73 75 76 76 74 73 72
70 68 68 69 67 67 67 66 63 62 63 64 66 69 71 72 73 73 74 74 73 73 72 72 70 66 70 73 74 75 74 73 72
69 67 66 67 66 67 67 67 64 61 62 61 61 63 67 69 71 72 72 73 74 73 72 71 72 71 67 70 72 73 74 73 73
68 67 66 66 66 67 68 68 67 63 61 59 58 59 66 66 69 71 70 71 73 72 71 71 71 72 72 70 68 71 73 73 73
67 68 68 67 66 66 65 65 65 64 62 62 60 56 60 65 68 69 71 71 71 69 70 68 70 70 70 67 67 66 68 71 73
67 67 67 67 66 65 64 64 63 63 60 58 61 63 61 62 62 63 63 67 69 70 69 70 67 68 68 66 63 63 64 69 73
66 66 66 66 66 66 65 62 62 62 61 61 60 60 62 63 61 61 62 62 64 67 67 64 65 66 66 67 63 61 64 69 72

GFSFLT1_sfc_temp_108.txt.gz
Temp
79 79 78 78 76 77 77 77 76 76 76 76 76 74 73 72 83 83 80 84 76 76 76 76 76 75 76 75 75 75 75 75 75
78 77 77 76 76 76 77 76 76 76 76 76 76 74 71 83 83 83 82 81 76 76 76 76 75 75 75 75 75 75 75 74 74
77 77 77 76 76 76 77 76 76 75 76 76 75 72 70 78 82 82 83 76 76 76 75 75 75 75 75 75 74 74 74 74 74
77 77 76 76 76 75 76 76 76 75 76 75 73 71 70 84 83 83 83 74 76 76 75 75 75 75 74 74 74 74 74 73 73
75 74 74 75 75 75 75 75 75 75 74 74 72 70 69 84 82 83 83 74 76 76 75 75 75 74 74 73 73 73 73 73 73
82 76 73 73 74 74 74 75 74 73 72 72 71 69 83 84 84 84 72 74 76 76 75 74 74 74 73 73 73 73 73 72 72
83 76 70 73 73 73 74 74 73 72 82 79 71 80 84 84 83 84 72 73 76 76 75 74 74 74 73 73 73 73 72 72 71
83 83 80 77 71 79 77 77 79 78 83 83 83 83 83 84 83 80 70 73 76 76 75 74 74 74 73 73 73 73 72 72 71
82 83 81 79 77 78 80 81 80 81 81 82 82 83 82 83 83 81 68 71 74 77 76 75 74 74 73 73 73 73 72 72 71
81 80 79 80 78 77 76 79 81 80 77 81 82 82 82 83 83 83 66 67 71 74 76 76 75 74 74 74 73 73 72 72 72
78 78 77 80 78 76 75 73 73 74 81 81 81 81 81 82 82 82 81 66 68 71 74 75 76 76 75 75 74 73 73 73 72
78 77 78 78 78 71 71 72 70 75 76 78 80 81 82 82 81 81 81 79 64 67 72 74 75 76 76 76 76 74 73 73 72
77 79 78 78 79 77 76 74 69 69 67 72 75 72 79 80 81 81 81 81 80 71 68 71 73 75 76 76 77 75 74 73 73
77 78 78 79 75 74 73 73 72 68 67 65 67 72 76 80 80 81 80 80 80 80 71 66 68 70 73 75 76 76 74 73 73
75 77 77 76 71 72 72 71 70 70 70 64 66 72 75 77 79 80 82 82 80 80 79 79 74 66 70 73 75 76 75 74 73
73 74 73 69 67 70 69 67 67 65 69 62 62 63 67 69 72 77 78 78 79 81 80 80 80 78 67 70 72 74 75 74 73
72 72 72 72 66 67 67 68 66 67 70 66 68 63 67 66 70 72 71 74 75 76 78 79 78 78 78 73 68 71 74 74 74
72 72 72 70 69 65 68 71 70 69 71 68 66 59 60 69 71 68 71 75 75 76 76 76 78 77 77 74 70 66 69 73 74
71 70 70 71 69 69 70 71 70 68 65 65 64 65 65 60 63 73 75 78 78 78 77 77 77 76 75 68 65 63 65 70 73
71 71 69 68 69 69 70 68 68 67 63 62 61 61 61 62 59 56 61 66 71 74 75 76 72 72 70 68 66 61 64 69 71

GFSFLT1_sfc_temp_111.txt.gz
Temp
79 79 78 78 77 77 77 77 76 76 76 76 75 74 74 72 84 83 81 81 76 76 76 76 76 76 76 75 75 75 75 75 75
79 77 77 77 76 76 77 77 76 75 76 76 76 74 73 78 83 83 82 78 76 76 76 76 75 75 75 75 75 75 75 74 74
78 77 77 77 77 76 76 76 76 76 76 76 75 73 71 78 83 82 82 75 77 76 76 75 75 75 75 75 74 74 74 74 74
77 76 76 76 77 76 76 76 76 75 75 75 74 71 71 76 83 83 82 74 77 76 75 75 75 75 74 74 74 74 74 74 73
75 75 74 75 75 75 75 75 75 75 75 74 72 70 70 78 82 82 78 75 77 76 75 75 75 74 74 73 73 73 73 73 73
81 77 74 74 74 75 75 74 74 73 72 72 71 69 78 82 82 83 73 75 77 76 75 75 75 74 74 73 73 73 73 72 72
83 77 72 73 73 73 74 74 73 72 79 76 70 76 81 84 83 82 73 74 76 76 75 74 74 74 73 73 73 73 72 72 72
83 84 80 77 71 76 76 76 77 78 81 81 80 79 81 83 83 78 72 74 76 77 75 74 74 74 73 73 73 73 72 72 72
80 82 83 78 78 76 76 75 79 80 80 83 83 83 83 83 83 78 70 72 74 76 76 75 74 74 74 74 73 73 72 72 72
79 82 81 79 78 77 75 75 74 80 81 81 83 83 83 83 83 82 67 69 72 74 76 76 75 75 74 74 74 73 73 72 72
73 76 76 76 77 77 77 77 76 75 78 80 80 82 83 83 83 82 75 67 69 71 74 75 77 76 75 75 74 73 73 73 72
74 74 75 76 77 76 76 75 73 71 70 71 75 79 82 82 81 81 81 75 66 68 72 74 75 75 76 76 75 74 73 73 72
71 71 75 75 75 76 75 73 67 68 66 65 67 71 75 79 81 81 81 80 80 68 69 71 73 74 75 76 77 75 74 73 72
69 67 70 73 74 75 74 72 72 70 69 70 73 75 75 74 76 77 79 80 79 79 69 67 68 70 73 75 76 77 75 73 73
70 67 66 69 72 74 71 71 71 69 69 67 67 71 73 73 74 76 78 80 79 79 77 73 70 66 70 73 75 76 75 74 73
73 70 71 71 71 71 72 70 67 66 68 65 64 67 70 71 71 72 75 76 78 79 78 77 77 74 67 70 72 74 75 75 73
72 71 69 72 69 69 69 67 66 66 65 62 62 59 63 65 70 71 72 72 74 75 76 76 76 75 74 69 68 72 74 75 75
72 72 70 68 69 67 67 66 64 62 67 66 65 59 59 67 73 70 72 72 71 72 73 74 75 76 74 71 68 66 69 73 75
69 71 71 69 68 66 67 68 67 66 64 66 68 69 66 62 62 72 72 73 73 74 74 75 75 75 74 70 67 65 65 70 73
67 67 68 68 67 67 67 66 67 66 65 65 65 65 65 63 58 58 65 68 71 72 76 77 75 75 73 72 68 64 65 69 72

GFSFLT1_sfc_temp_114.txt.gz
Temp
79 78 77 77 77 77 77 77 76 76 76 76 76 74 74 73 70 72 73 71 76 76 76 76 76 76 76 75 75 75 75 75 75
77 77 77 77 77 77 77 77 76 75 75 76 75 74 73 70 68 72 71 71 76 76 76 76 76 75 75 75 75 75 75 74 74
77 76 76 77 77 77 77 76 76 75 75 76 75 73 71 73 71 73 69 74 76 76 76 75 75 75 75 75 74 74 74 74 74
77 76 76 76 77 76 76 76 76 75 75 75 74 72 71 66 69 77 70 74 77 76 75 75 75 75 74 74 74 74 74 74 74
75 75 75 76 76 75 75 75 75 75 74 74 72 71 70 64 69 72 71 75 77 76 75 75 75 74 74 73 73 73 73 73 73
74 73 73 74 74 75 75 75 74 73 72 72 71 69 66 67 69 70 73 76 77 76 75 75 75 74 74 73 73 73 73 72 72
78 74 71 73 73 73 74 74 73 71 69 67 69 65 67 70 71 69 73 76 77 76 75 74 74 74 73 73 73 73 73 72 72
74 72 71 69 69 70 72 71 72 68 69 70 67 67 68 71 71 70 72 75 77 77 75 74 74 74 74 73 73 73 73 72 72
74 73 73 70 70 69 68 69 70 71 72 70 70 71 71 71 71 68 70 73 76 77 76 75 74 74 74 74 73 73 73 72 72
72 71 73 70 69 69 68 68 69 70 73 74 73 71 72 71 71 66 67 70 73 75 76 76 75 75 74 74 74 73 73 72 72
68 69 69 70 70 69 68 68 68 67 69 73 74 74 74 71 72 69 66 68 70 73 75 76 76 76 75 75 74 73 73 73 72
68 69 68 69 69 69 68 68 68 67 67 66 68 71 74 71 73 71 68 67 66 69 73 74 75 76 76 76 75 74 73 73 73
67 68 66 69 68 68 68 67 66 66 65 65 64 66 69 72 74 74 73 68 71 67 70 72 74 75 75 76 76 75 73 73 72
66 66 64 65 64 67 67 66 66 63 64 65 65 67 69 69 72 68 70 70 69 70 67 67 69 70 73 76 76 76 75 73 73
64 63 64 65 64 64 65 65 65 64 64 65 64 64 68 67 67 70 74 72 74 71 71 67 67 66 70 73 75 76 76 74 73
64 64 66 65 64 65 66 65 63 63 64 62 62 64 66 65 64 67 71 73 75 74 75 72 66 69 67 70 72 74 76 75 74
67 66 64 64 64 64 65 65 62 63 64 60 60 57 61 64 66 67 69 69 68 67 70 72 72 72 68 66 69 72 75 76 75
67 65 64 63 63 62 62 63 63 61 62 62 61 56 56 60 62 64 67 68 68 70 71 71 69 72 69 67 67 66 70 74 76
65 65 65 63 62 61 61 63 63 61 60 62 64 64 61 57 55 60 62 66 66 68 69 71 71 72 71 67 65 64 65 71 74
60 61 63 63 61 60 61 62 61 62 60 60 59 60 60 59 56 56 58 60 65 66 68 70 70 73 72 70 67 64 66 70 72

GFSFLT1_sfc_temp_120.txt.gz
Temp
78 78 77 76 76 77 77 76 76 75 76 77 76 75 74 72 65 66 70 68 76 76 75 75 75 75 75 75 75 74 74 74 74
78 77 76 76 76 77 77 76 76 75 75 76 76 74 73 67 64 65 66 68 76 76 75 75 75 75 75 75 74 74 74 74 74
78 77 76 76 76 77 77 76 76 75 75 76 75 73 71 69 65 65 65 72 76 76 75 75 75 75 75 74 74 74 74 74 74
77 76 76 76 76 76 76 76 76 75 75 75 74 72 71 65 65 69 66 74 77 76 75 75 75 75 74 74 74 74 73 73 73
74 74 74 75 75 75 75 75 75 75 74 74 72 71 70 64 65 66 66 74 77 76 75 75 75 75 74 74 73 73 73 73 73
71 71 71 73 74 75 75 75 75 73 72 72 71 69 65 62 64 65 70 74 77 76 75 75 75 74 74 73 73 73 73 73 73
72 69 69 71 72 73 74 75 73 71 69 68 69 66 64 62 63 64 70 75 78 77 75 75 74 74 74 73 73 73 73 73 72
69 69 69 68 68 69 71 71 71 68 67 66 66 65 63 62 63 68 70 74 78 77 75 74 74 74 74 73 73 73 73 73 72
68 68 68 67 68 68 68 68 69 67 67 66 66 65 64 64 65 64 68 72 77 77 76 75 74 74 74 74 73 73 73 72 72
69 70 71 67 67 68 67 67 67 66 66 66 66 65 65 65 66 65 66 70 73 76 77 76 75 74 74 74 73 73 73 72 72
65 67 66 68 67 68 68 67 66 66 66 66 67 67 66 67 67 66 67 68 70 74 76 76 76 75 75 75 74 73 73 73 72
65 65 64 66 66 66 67 66 66 66 66 65 66 68 67 67 68 66 66 67 67 70 75 75 76 76 76 76 75 74 73 73 72
64 64 64 66 65 65 66 66 65 66 66 66 65 66 67 66 65 69 67 67 69 68 70 73 74 75 76 77 77 75 73 72 72
62 63 64 64 64 64 65 64 64 65 65 65 65 64 64 64 66 64 66 68 69 69 68 68 69 71 74 76 77 77 74 73 72
62 62 63 63 61 62 62 62 62 62 62 63 63 64 65 65 64 63 64 63 68 68 68 67 67 66 71 73 75 76 76 75 73
61 62 63 62 61 61 61 60 60 60 61 59 61 62 64 64 64 64 63 65 68 67 68 67 66 68 67 70 72 74 75 75 74
61 61 62 64 61 59 59 60 59 59 62 58 57 54 58 62 63 64 64 64 65 65 67 67 68 67 68 67 68 71 74 75 75
56 57 60 61 61 60 59 60 60 60 61 62 57 54 52 55 61 62 64 65 65 66 66 65 66 67 67 65 66 66 69 73 75
53 55 56 57 62 61 60 62 61 59 58 58 59 58 57 53 53 58 61 63 63 63 63 64 65 65 66 65 64 65 65 70 73
50 51 54 53 55 56 60 61 60 60 57 57 58 57 57 57 56 55 57 58 61 63 63 64 65 66 65 64 63 63 66 70 72

GFSFLT1_sfc_temp_123.txt.gz
Temp
78 78 77 76 76 76 76 77 76 75 76 76 76 75 74 72 64 65 68 67 76 76 75 75 75 75 75 75 74 74 74 74 74
78 77 76 76 76 76 77 76 76 75 75 76 76 75 72 65 63 64 65 66 77 76 75 75 75 75 75 74 74 74 74 74 74
78 77 76 76 76 76 76 76 76 75 75 76 75 74 71 68 64 64 64 69 76 76 75 75 75 75 75 74 74 74 74 73 73
77 76 76 76 76 76 76 76 76 75 75 75 74 72 71 64 64 67 64 69 77 77 75 75 75 75 75 74 74 73 73 73 73
74 74 74 75 75 75 75 75 75 75 74 74 73 71 70 63 64 65 65 71 77 77 75 75 75 75 74 74 73 73 73 73 73
70 70 71 72 74 74 75 75 75 73 72 72 71 69 64 62 62 63 69 73 76 77 76 75 75 75 74 74 73 73 73 73 73
71 68 69 71 72 72 74 74 74 71 68 69 69 67 65 62 62 63 69 73 76 77 76 75 75 75 74 73 73 73 73 73 73
67 67 68 67 67 68 70 70 70 68 67 67 67 66 64 63 62 66 69 73 76 77 76 75 74 74 74 73 73 73 73 73 72
67 67 67 66 67 67 67 68 69 68 68 67 66 66 65 64 63 62 67 71 75 77 77 75 74 74 74 74 73 73 73 73 72
66 66 68 67 66 67 67 67 67 67 67 66 66 65 65 64 65 62 64 68 72 75 77 76 75 75 74 74 74 73 73 72 72
63 64 65 66 68 68 68 67 66 66 66 66 65 66 66 65 65 65 63 66 69 72 75 76 76 75 75 75 74 73 73 73 72
61 63 64 65 66 66 65 65 66 66 66 66 65 66 65 65 65 65 64 65 65 69 74 75 76 76 76 76 75 74 73 73 72
60 61 62 64 64 65 66 66 65 65 65 66 66 65 65 64 65 66 66 67 68 67 70 72 74 75 76 76 77 76 74 72 72
59 61 62 63 63 64 64 65 65 64 64 65 66 66 65 64 65 63 65 65 66 66 67 67 68 72 74 76 77 77 74 73 72
59 59 60 61 62 63 63 63 65 64 64 64 64 65 65 64 63 64 65 65 64 62 64 64 65 66 70 74 75 76 76 75 73
57 58 58 59 60 62 63 62 61 62 61 61 61 60 63 63 63 63 64 64 65 63 63 62 63 65 66 70 72 74 75 75 74
55 54 54 57 59 60 62 61 60 59 59 58 56 55 58 61 63 63 63 63 63 62 62 61 62 63 66 66 68 71 74 75 74
51 51 52 54 57 60 62 61 60 59 58 60 59 54 52 55 61 62 63 62 62 63 63 63 62 62 62 64 65 65 68 72 75
49 49 50 51 54 58 60 62 60 60 58 59 61 59 57 54 52 56 59 62 62 63 63 63 63 63 64 63 61 62 63 68 72
49 48 48 49 50 52 54 56 58 59 59 58 58 59 59 57 55 54 56 56 58 61 62 62 63 64 63 63 62 61 64 69 72

GFSFLT1_sfc_temp_126.txt.gz
Temp
78 78 77 76 76 76 77 77 76 75 76 76 76 75 74 72 63 64 67 66 74 77 76 75 75 75 75 75 74 74 74 74 74
78 77 76 76 76 76 76 77 76 75 75 76 76 75 73 66 62 63 65 66 75 76 75 75 75 75 75 74 74 74 74 74 74
77 76 76 76 76 76 76 76 76 75 75 75 76 74 71 67 63 64 64 68 75 77 76 75 75 75 75 74 74 74 74 74 73
76 75 75 75 76 76 75 75 76 75 75 75 74 73 71 63 63 66 64 69 75 77 76 75 75 75 75 74 74 74 73 73 73
73 73 73 74 74 74 74 75 75 75 75 74 73 71 70 64 62 63 64 71 75 77 76 75 75 75 75 74 74 73 73 73 73
69 69 70 72 73 74 74 74 74 73 71 72 72 70 66 63 61 62 68 72 75 77 77 75 75 75 75 74 74 73 73 73 73
69 67 68 70 71 72 73 73 73 71 69 68 70 69 66 62 61 61 69 72 75 77 77 75 75 75 75 74 74 73 73 73 73
65 66 67 67 67 67 68 68 70 69 67 67 67 67 66 64 63 65 68 72 75 76 77 76 75 75 74 74 74 73 73 73 73
62 63 64 64 66 66 67 66 67 68 68 68 67 66 66 66 65 63 67 70 74 76 77 76 75 75 75 74 74 73 73 73 72
59 61 62 63 64 65 66 66 66 67 67 67 67 66 66 65 65 64 64 67 71 74 76 77 76 75 75 75 74 73 73 73 72
58 59 60 61 63 64 65 67 66 66 66 67 67 67 66 66 65 64 62 65 68 71 74 76 76 76 76 75 74 73 73 73 73
56 57 57 59 62 63 63 65 67 66 66 66 68 67 66 65 65 64 63 63 65 67 72 74 75 76 76 76 75 75 73 73 72
55 56 57 60 61 63 64 64 64 65 65 65 66 66 66 66 65 65 65 65 65 65 68 70 73 75 75 76 76 75 74 73 72
56 56 57 59 59 60 62 62 62 63 64 65 65 66 66 66 65 64 65 65 64 64 66 66 67 69 73 75 76 76 74 74 73
55 56 57 58 57 58 58 58 62 62 63 63 63 63 65 64 64 64 64 63 63 63 63 62 63 63 65 68 73 75 75 73 73
51 50 52 53 56 56 58 58 58 60 62 60 61 62 65 65 64 64 63 63 64 63 63 62 62 62 63 65 66 69 71 74 74
50 48 51 52 53 54 56 57 57 58 61 58 56 56 57 61 63 64 64 63 63 63 63 63 63 62 62 62 63 65 68 69 73
48 48 49 50 51 51 52 57 59 57 59 60 56 54 53 54 58 62 63 63 62 64 63 62 62 63 62 62 62 62 64 67 69
47 47 47 48 49 50 50 53 56 58 56 59 60 57 57 54 53 57 61 63 62 63 63 62 62 62 61 61 60 61 62 65 67
48 46 46 46 47 48 48 49 50 52 56 57 56 57 57 56 55 54 55 57 60 62 61 62 61 62 62 61 60 60 62 65 67

GFSFLT1_sfc_temp_129.txt.gz
Temp
77 77 77 76 76 76 77 76 76 76 76 76 76 76 75 72 77 77 77 77 76 77 76 75 75 75 75 75 75 75 75 75 75
78 77 76 76 76 76 76 77 77 76 75 76 76 75 73 77 76 76 76 77 75 77 76 75 75 75 75 75 74 74 74 74 74
77 76 76 76 76 76 76 76 76 76 76 75 76 74 72 74 76 76 76 74 75 77 76 75 75 75 75 75 74 74 74 74 74
74 75 75 76 76 76 75 75 75 75 75 75 74 73 71 75 77 76 76 71 74 77 77 76 75 76 75 75 74 74 74 74 74
73 72 73 74 74 75 75 75 75 75 74 74 73 72 70 76 72 75 77 71 74 76 77 76 76 76 75 75 74 74 74 74 73
75 70 69 71 72 73 74 74 74 73 72 72 72 70 78 78 75 75 71 72 74 76 77 76 76 76 75 75 74 74 74 74 73
71 69 67 69 70 70 72 73 73 72 79 79 71 78 78 77 76 76 70 72 75 76 76 76 76 75 75 75 74 74 74 74 73
71 72 73 73 70 74 74 74 76 77 77 77 76 76 76 73 75 74 69 72 75 76 76 76 75 75 75 75 74 74 74 73 73
66 69 70 70 73 72 72 73 75 74 75 76 77 76 75 73 76 75 67 70 74 76 76 76 75 75 75 75 75 74 73 73 73
64 67 67 67 68 70 69 70 71 72 72 74 74 75 76 75 75 76 66 67 71 73 76 77 77 76 75 75 75 74 73 73 73
62 63 64 65 66 68 68 69 69 70 71 71 72 74 74 73 73 74 72 65 68 71 73 75 77 77 76 76 75 74 73 73 73
62 62 63 64 65 66 66 67 67 67 68 68 70 71 73 72 70 71 71 70 64 67 71 73 75 75 76 76 75 74 74 73 73
58 58 60 62 62 63 64 65 65 66 67 68 68 68 69 70 70 69 69 69 71 66 68 70 73 74 75 76 76 75 73 73 72
58 57 58 60 60 61 62 63 63 63 64 66 68 67 66 68 69 68 68 68 68 69 67 66 68 70 73 75 76 75 74 73 72
55 55 55 55 55 58 60 59 62 62 63 64 63 66 68 69 69 69 68 67 67 66 67 67 66 65 69 72 75 75 73 73 72
54 53 53 54 53 53 56 58 58 59 63 61 63 64 65 68 69 68 67 68 66 66 66 64 66 66 66 68 70 71 71 70 69
53 51 51 52 52 52 53 53 54 58 62 57 58 55 63 67 69 67 67 65 64 65 66 66 66 67 67 67 67 69 71 71 70
51 51 50 51 51 50 51 51 50 51 58 59 55 53 55 61 65 64 64 64 64 64 65 65 66 67 68 66 64 63 66 69 70
50 50 50 50 50 50 50 52 49 49 49 55 61 59 59 57 58 64 66 64 64 64 65 65 65 66 67 65 61 61 62 66 68
49 49 49 48 49 49 49 49 48 48 48 49 52 56 57 56 54 53 60 63 66 65 66 64 64 65 66 65 62 60 62 65 67